Wetterdaten: Sonntag, 19.06.2022
Datum Zeit Temp. Aussen Temp. o. S. Temp +5cm Feuchte Auss Luftdruck Regen Sonnenschein Regendauer Solar Windben Empfang
19.06.2022 00:00 25,1 C 23,9 C 20,6 C 73 % 1009,1 hPa 0,0 l/m 0 min 0 min 0 W/m 3,2 km/h (1 Bft) 95,74 %
19.06.2022 00:02 25,0 C 23,9 C 20,6 C 73 % 1009,1 hPa 0,0 l/m 0 min 0 min 0 W/m 3,2 km/h (1 Bft) 92,11 %
19.06.2022 00:04 25,0 C 23,9 C 20,6 C 73 % 1009,0 hPa 0,0 l/m 0 min 0 min 0 W/m 3,2 km/h (1 Bft) 95,74 %
19.06.2022 00:07 25,0 C 23,9 C 20,6 C 73 % 1008,9 hPa 0,0 l/m 0 min 0 min 0 W/m 3,2 km/h (1 Bft) 95,74 %
19.06.2022 00:08 25,0 C 23,9 C 20,6 C 73 % 1008,9 hPa 0,0 l/m 0 min 0 min 0 W/m 6,4 km/h (2 Bft) 96,70 %
19.06.2022 00:10 25,0 C 23,9 C 20,6 C 73 % 1008,9 hPa 0,0 l/m 0 min 0 min 0 W/m 6,4 km/h (2 Bft) 95,74 %
19.06.2022 00:12 25,0 C 23,9 C 20,6 C 73 % 1008,9 hPa 0,0 l/m 0 min 0 min 0 W/m 6,4 km/h (2 Bft) 95,74 %
19.06.2022 00:14 25,0 C 23,9 C 20,6 C 73 % 1009,0 hPa 0,0 l/m 0 min 0 min 0 W/m 6,4 km/h (2 Bft) 95,74 %
19.06.2022 00:16 25,0 C 23,9 C 20,6 C 73 % 1008,9 hPa 0,0 l/m 0 min 0 min 0 W/m 3,2 km/h (1 Bft) 97,92 %
19.06.2022 00:18 25,0 C 23,9 C 20,6 C 73 % 1008,9 hPa 0,0 l/m 0 min 0 min 0 W/m 16,1 km/h (3 Bft) 97,87 %
19.06.2022 00:20 25,0 C 23,9 C 20,6 C 73 % 1009,0 hPa 0,0 l/m 0 min 0 min 0 W/m 6,4 km/h (2 Bft) 95,74 %
19.06.2022 00:22 24,9 C 23,9 C 20,6 C 73 % 1009,0 hPa 0,0 l/m 0 min 0 min 0 W/m 3,2 km/h (1 Bft) 97,87 %
19.06.2022 00:24 24,9 C 23,9 C 20,6 C 73 % 1008,9 hPa 0,0 l/m 0 min 0 min 0 W/m 3,2 km/h (1 Bft) 97,87 %
19.06.2022 00:26 24,9 C 23,9 C 20,6 C 73 % 1008,9 hPa 0,0 l/m 0 min 0 min 0 W/m 3,2 km/h (1 Bft) 100,00 %
19.06.2022 00:28 24,9 C 23,9 C 20,6 C 73 % 1008,9 hPa 0,0 l/m 0 min 0 min 0 W/m 3,2 km/h (1 Bft) 100,00 %
19.06.2022 00:30 24,9 C 23,9 C 20,6 C 73 % 1008,9 hPa 0,0 l/m 0 min 0 min 0 W/m 6,4 km/h (2 Bft) 100,00 %
19.06.2022 00:32 24,9 C 23,9 C 20,6 C 73 % 1008,9 hPa 0,0 l/m 0 min 0 min 0 W/m 3,2 km/h (1 Bft) 100,00 %
19.06.2022 00:34 24,9 C 23,9 C 20,6 C 73 % 1008,9 hPa 0,0 l/m 0 min 0 min 0 W/m 3,2 km/h (1 Bft) 100,00 %
19.06.2022 00:36 24,9 C 23,9 C 20,6 C 73 % 1008,9 hPa 0,0 l/m 0 min 0 min 0 W/m 3,2 km/h (1 Bft) 95,74 %
19.06.2022 00:38 24,9 C 23,9 C 20,6 C 73 % 1008,9 hPa 0,0 l/m 0 min 0 min 0 W/m 3,2 km/h (1 Bft) 100,00 %
19.06.2022 00:40 24,9 C 23,9 C 20,6 C 73 % 1009,0 hPa 0,0 l/m 0 min 0 min 0 W/m 6,4 km/h (2 Bft) 100,00 %
19.06.2022 00:42 24,9 C 23,9 C 20,6 C 73 % 1008,9 hPa 0,0 l/m 0 min 0 min 0 W/m 3,2 km/h (1 Bft) 97,83 %
19.06.2022 00:44 25,0 C 23,9 C 20,6 C 73 % 1008,9 hPa 0,0 l/m 0 min 0 min 0 W/m 16,1 km/h (3 Bft) 95,74 %
19.06.2022 00:46 25,0 C 23,9 C 20,6 C 73 % 1008,9 hPa 0,0 l/m 0 min 0 min 0 W/m 12,9 km/h (3 Bft) 97,87 %
19.06.2022 00:48 25,0 C 23,9 C 20,6 C 73 % 1008,9 hPa 0,0 l/m 0 min 0 min 0 W/m 16,1 km/h (3 Bft) 97,87 %
19.06.2022 00:50 25,1 C 23,9 C 20,6 C 73 % 1008,9 hPa 0,0 l/m 0 min 0 min 0 W/m 12,9 km/h (3 Bft) 97,87 %
19.06.2022 00:52 25,1 C 23,9 C 20,6 C 73 % 1008,8 hPa 0,0 l/m 0 min 0 min 0 W/m 3,2 km/h (1 Bft) 97,87 %
19.06.2022 00:54 25,0 C 23,9 C 20,6 C 73 % 1008,8 hPa 0,0 l/m 0 min 0 min 0 W/m 6,4 km/h (2 Bft) 95,65 %
19.06.2022 00:56 25,0 C 23,9 C 20,6 C 73 % 1008,8 hPa 0,0 l/m 0 min 0 min 0 W/m 9,7 km/h (2 Bft) 95,74 %
19.06.2022 00:58 24,9 C 23,9 C 20,6 C 73 % 1008,8 hPa 0,0 l/m 0 min 0 min 0 W/m 19,3 km/h (3 Bft) 95,74 %
19.06.2022 01:00 24,9 C 23,9 C 20,0 C 73 % 1008,8 hPa 0,0 l/m 0 min 0 min 0 W/m 3,2 km/h (1 Bft) 95,74 %
19.06.2022 01:02 24,9 C 23,9 C 20,0 C 73 % 1008,8 hPa 0,0 l/m 0 min 0 min 0 W/m 9,7 km/h (2 Bft) 95,74 %
19.06.2022 01:04 24,8 C 23,3 C 20,0 C 73 % 1008,7 hPa 0,0 l/m 0 min 0 min 0 W/m 6,4 km/h (2 Bft) 97,87 %
19.06.2022 01:06 24,7 C 23,3 C 20,0 C 74 % 1008,7 hPa 0,0 l/m 0 min 0 min 0 W/m 3,2 km/h (1 Bft) 97,83 %
19.06.2022 01:08 24,7 C 23,3 C 20,0 C 74 % 1008,7 hPa 0,0 l/m 0 min 0 min 0 W/m 6,4 km/h (2 Bft) 97,87 %
19.06.2022 01:10 24,6 C 23,3 C 20,0 C 74 % 1008,6 hPa 0,0 l/m 0 min 0 min 0 W/m 16,1 km/h (3 Bft) 97,87 %
19.06.2022 01:12 24,6 C 23,3 C 20,0 C 74 % 1008,5 hPa 0,0 l/m 0 min 0 min 0 W/m 12,9 km/h (3 Bft) 97,87 %
19.06.2022 01:14 24,4 C 23,3 C 20,0 C 75 % 1008,5 hPa 0,0 l/m 0 min 0 min 0 W/m 12,9 km/h (3 Bft) 97,87 %
19.06.2022 01:16 24,4 C 23,3 C 20,0 C 75 % 1008,4 hPa 0,0 l/m 0 min 0 min 0 W/m 9,7 km/h (2 Bft) 97,87 %
19.06.2022 01:18 24,3 C 23,3 C 20,0 C 75 % 1008,4 hPa 0,0 l/m 0 min 0 min 0 W/m 12,9 km/h (3 Bft) 95,65 %
19.06.2022 01:20 24,2 C 23,3 C 19,4 C 76 % 1008,4 hPa 0,0 l/m 0 min 0 min 0 W/m 9,7 km/h (2 Bft) 97,87 %
19.06.2022 01:22 24,2 C 22,8 C 19,4 C 76 % 1008,4 hPa 0,0 l/m 0 min 0 min 0 W/m 16,1 km/h (3 Bft) 97,87 %
19.06.2022 01:24 24,1 C 22,8 C 19,4 C 76 % 1008,3 hPa 0,0 l/m 0 min 0 min 0 W/m 3,2 km/h (1 Bft) 100,00 %
19.06.2022 01:26 24,1 C 22,8 C 19,4 C 76 % 1008,3 hPa 0,0 l/m 0 min 0 min 0 W/m 3,2 km/h (1 Bft) 97,87 %
19.06.2022 01:28 24,1 C 22,8 C 19,4 C 77 % 1008,3 hPa 0,0 l/m 0 min 0 min 0 W/m 3,2 km/h (1 Bft) 100,00 %
19.06.2022 01:30 24,0 C 22,8 C 19,4 C 77 % 1008,1 hPa 0,0 l/m 0 min 0 min 0 W/m 6,4 km/h (2 Bft) 97,83 %
19.06.2022 01:32 23,9 C 22,8 C 19,4 C 77 % 1008,1 hPa 0,0 l/m 0 min 0 min 0 W/m 6,4 km/h (2 Bft) 100,00 %
19.06.2022 01:34 23,9 C 22,8 C 19,4 C 77 % 1008,1 hPa 0,0 l/m 0 min 0 min 0 W/m 6,4 km/h (2 Bft) 100,00 %
19.06.2022 01:36 23,8 C 22,8 C 19,4 C 77 % 1008,2 hPa 0,0 l/m 0 min 0 min 0 W/m 6,4 km/h (2 Bft) 97,87 %
19.06.2022 01:38 23,8 C 22,8 C 19,4 C 77 % 1008,1 hPa 0,0 l/m 0 min 0 min 0 W/m 3,2 km/h (1 Bft) 97,87 %
19.06.2022 01:40 23,7 C 22,8 C 19,4 C 77 % 1008,1 hPa 0,0 l/m 0 min 0 min 0 W/m 6,4 km/h (2 Bft) 100,00 %
19.06.2022 01:42 23,7 C 22,8 C 19,4 C 77 % 1008,1 hPa 0,0 l/m 0 min 0 min 0 W/m 0,0 km/h (0 Bft) 95,65 %
19.06.2022 01:44 23,7 C 22,8 C 19,4 C 78 % 1008,1 hPa 0,0 l/m 0 min 0 min 0 W/m 3,2 km/h (1 Bft) 95,74 %
19.06.2022 01:46 23,7 C 22,8 C 19,4 C 78 % 1008,1 hPa 0,0 l/m 0 min 0 min 0 W/m 9,7 km/h (2 Bft) 97,87 %
19.06.2022 01:48 23,7 C 22,8 C 19,4 C 78 % 1008,1 hPa 0,0 l/m 0 min 0 min 0 W/m 3,2 km/h (1 Bft) 97,87 %
19.06.2022 01:50 23,7 C 22,8 C 18,9 C 78 % 1008,1 hPa 0,0 l/m 0 min 0 min 0 W/m 6,4 km/h (2 Bft) 97,87 %
19.06.2022 01:52 23,6 C 22,8 C 19,4 C 78 % 1008,1 hPa 0,0 l/m 0 min 0 min 0 W/m 9,7 km/h (2 Bft) 97,87 %
19.06.2022 01:54 23,6 C 22,8 C 18,9 C 78 % 1008,1 hPa 0,0 l/m 0 min 0 min 0 W/m 9,7 km/h (2 Bft) 97,83 %
19.06.2022 01:56 23,6 C 22,8 C 18,9 C 78 % 1008,2 hPa 0,0 l/m 0 min 0 min 0 W/m 6,4 km/h (2 Bft) 97,87 %
19.06.2022 01:58 23,6 C 22,8 C 18,9 C 78 % 1008,1 hPa 0,0 l/m 0 min 0 min 0 W/m 12,9 km/h (3 Bft) 97,87 %
19.06.2022 02:00 23,5 C 22,2 C 18,9 C 78 % 1008,0 hPa 0,0 l/m 0 min 0 min 0 W/m 9,7 km/h (2 Bft) 97,87 %
19.06.2022 02:02 23,4 C 22,2 C 18,9 C 78 % 1008,0 hPa 0,0 l/m 0 min 0 min 0 W/m 6,4 km/h (2 Bft) 95,74 %
19.06.2022 02:04 23,4 C 22,2 C 18,9 C 78 % 1008,0 hPa 0,0 l/m 0 min 0 min 0 W/m 6,4 km/h (2 Bft) 95,74 %
19.06.2022 02:06 23,4 C 22,2 C 18,9 C 79 % 1008,1 hPa 0,0 l/m 0 min 0 min 0 W/m 6,4 km/h (2 Bft) 97,83 %
19.06.2022 02:08 23,2 C 22,2 C 18,3 C 79 % 1008,0 hPa 0,0 l/m 0 min 0 min 0 W/m 6,4 km/h (2 Bft) 95,74 %
19.06.2022 02:10 23,1 C 22,2 C 18,3 C 79 % 1008,0 hPa 0,0 l/m 0 min 0 min 0 W/m 12,9 km/h (3 Bft) 97,87 %
19.06.2022 02:12 23,0 C 21,7 C 18,3 C 79 % 1007,9 hPa 0,0 l/m 0 min 0 min 0 W/m 12,9 km/h (3 Bft) 93,62 %
19.06.2022 02:14 22,9 C 21,7 C 18,3 C 80 % 1007,9 hPa 0,0 l/m 0 min 0 min 0 W/m 6,4 km/h (2 Bft) 97,87 %
19.06.2022 02:16 22,8 C 21,7 C 18,3 C 80 % 1007,8 hPa 0,0 l/m 0 min 0 min 0 W/m 9,7 km/h (2 Bft) 100,00 %
19.06.2022 02:18 22,7 C 21,7 C 18,3 C 80 % 1007,7 hPa 0,0 l/m 0 min 0 min 0 W/m 6,4 km/h (2 Bft) 100,00 %
19.06.2022 02:20 22,6 C 21,7 C 17,8 C 80 % 1007,7 hPa 0,0 l/m 0 min 0 min 0 W/m 6,4 km/h (2 Bft) 97,87 %
19.06.2022 02:22 22,5 C 21,7 C 17,8 C 80 % 1007,5 hPa 0,0 l/m 0 min 0 min 0 W/m 3,2 km/h (1 Bft) 95,74 %
19.06.2022 02:24 22,4 C 21,1 C 17,8 C 80 % 1007,5 hPa 0,0 l/m 0 min 0 min 0 W/m 9,7 km/h (2 Bft) 97,87 %
19.06.2022 02:26 22,3 C 21,1 C 17,8 C 81 % 1007,3 hPa 0,0 l/m 0 min 0 min 0 W/m 9,7 km/h (2 Bft) 97,87 %
19.06.2022 02:28 22,3 C 21,1 C 17,8 C 81 % 1007,2 hPa 0,0 l/m 0 min 0 min 0 W/m 9,7 km/h (2 Bft) 97,87 %
19.06.2022 02:30 22,2 C 21,1 C 17,8 C 81 % 1007,4 hPa 0,0 l/m 0 min 0 min 0 W/m 9,7 km/h (2 Bft) 97,83 %
19.06.2022 02:32 22,2 C 21,1 C 17,8 C 81 % 1007,4 hPa 0,0 l/m 0 min 0 min 0 W/m 6,4 km/h (2 Bft) 97,87 %
19.06.2022 02:34 22,1 C 21,1 C 17,8 C 81 % 1007,3 hPa 0,0 l/m 0 min 0 min 0 W/m 6,4 km/h (2 Bft) 97,87 %
19.06.2022 02:36 22,1 C 21,1 C 17,8 C 81 % 1007,1 hPa 0,0 l/m 0 min 0 min 0 W/m 6,4 km/h (2 Bft) 97,87 %
19.06.2022 02:38 22,1 C 21,1 C 17,8 C 82 % 1007,0 hPa 0,0 l/m 0 min 0 min 0 W/m 6,4 km/h (2 Bft) 97,87 %
19.06.2022 02:40 22,0 C 21,1 C 17,8 C 82 % 1006,9 hPa 0,0 l/m 0 min 0 min 0 W/m 6,4 km/h (2 Bft) 95,74 %
19.06.2022 02:42 21,9 C 21,1 C 17,8 C 82 % 1006,9 hPa 0,0 l/m 0 min 0 min 0 W/m 9,7 km/h (2 Bft) 97,83 %
19.06.2022 02:44 21,9 C 21,1 C 17,8 C 82 % 1006,9 hPa 0,0 l/m 0 min 0 min 0 W/m 3,2 km/h (1 Bft) 95,74 %
19.06.2022 02:46 21,9 C 21,1 C 17,8 C 82 % 1006,9 hPa 0,0 l/m 0 min 0 min 0 W/m 3,2 km/h (1 Bft) 97,87 %
19.06.2022 02:48 21,8 C 21,1 C 17,8 C 82 % 1006,8 hPa 0,0 l/m 0 min 0 min 0 W/m 3,2 km/h (1 Bft) 95,74 %
19.06.2022 02:50 21,8 C 20,6 C 17,8 C 82 % 1006,8 hPa 0,0 l/m 0 min 0 min 0 W/m 3,2 km/h (1 Bft) 97,87 %
19.06.2022 02:52 21,8 C 20,6 C 17,8 C 82 % 1006,8 hPa 0,0 l/m 0 min 0 min 0 W/m 3,2 km/h (1 Bft) 97,87 %
19.06.2022 02:54 21,7 C 20,6 C 17,2 C 82 % 1006,8 hPa 0,0 l/m 0 min 0 min 0 W/m 6,4 km/h (2 Bft) 97,83 %
19.06.2022 02:56 21,6 C 20,6 C 17,2 C 83 % 1006,7 hPa 0,0 l/m 0 min 0 min 0 W/m 6,4 km/h (2 Bft) 95,74 %
19.06.2022 02:58 21,6 C 20,6 C 17,2 C 83 % 1006,7 hPa 0,0 l/m 0 min 0 min 0 W/m 9,7 km/h (2 Bft) 97,87 %
19.06.2022 03:00 21,6 C 20,6 C 17,2 C 83 % 1006,7 hPa 0,0 l/m 0 min 0 min 0 W/m 6,4 km/h (2 Bft) 97,87 %
19.06.2022 03:02 21,6 C 20,6 C 17,2 C 83 % 1006,7 hPa 0,0 l/m 0 min 0 min 0 W/m 9,7 km/h (2 Bft) 97,87 %
19.06.2022 03:04 21,5 C 20,6 C 17,2 C 83 % 1006,6 hPa 0,0 l/m 0 min 0 min 0 W/m 3,2 km/h (1 Bft) 97,87 %
19.06.2022 03:06 21,5 C 20,6 C 17,2 C 84 % 1006,5 hPa 0,0 l/m 0 min 0 min 0 W/m 6,4 km/h (2 Bft) 97,83 %
19.06.2022 03:08 21,5 C 20,6 C 17,2 C 83 % 1006,5 hPa 0,0 l/m 0 min 0 min 0 W/m 3,2 km/h (1 Bft) 100,00 %
19.06.2022 03:10 21,4 C 20,6 C 17,2 C 83 % 1006,5 hPa 0,0 l/m 0 min 0 min 0 W/m 3,2 km/h (1 Bft) 97,87 %
19.06.2022 03:12 21,4 C 20,6 C 17,2 C 83 % 1006,5 hPa 0,0 l/m 0 min 0 min 0 W/m 3,2 km/h (1 Bft) 100,00 %
19.06.2022 03:14 21,4 C 20,6 C 17,2 C 84 % 1006,4 hPa 0,0 l/m 0 min 0 min 0 W/m 0,0 km/h (0 Bft) 97,87 %
19.06.2022 03:16 21,4 C 20,6 C 17,2 C 84 % 1006,4 hPa 0,0 l/m 0 min 0 min 0 W/m 0,0 km/h (0 Bft) 100,00 %
19.06.2022 03:18 21,4 C 20,6 C 17,2 C 84 % 1006,4 hPa 0,0 l/m 0 min 0 min 0 W/m 0,0 km/h (0 Bft) 100,00 %
19.06.2022 03:20 21,4 C 20,6 C 17,2 C 84 % 1006,4 hPa 0,0 l/m 0 min 0 min 0 W/m 3,2 km/h (1 Bft) 100,00 %
19.06.2022 03:22 21,4 C 20,6 C 17,2 C 84 % 1006,4 hPa 0,0 l/m 0 min 0 min 0 W/m 3,2 km/h (1 Bft) 100,00 %
19.06.2022 03:24 21,4 C 20,6 C 17,2 C 84 % 1006,4 hPa 0,0 l/m 0 min 0 min 0 W/m 3,2 km/h (1 Bft) 97,87 %
19.06.2022 03:26 21,4 C 20,6 C 17,2 C 84 % 1006,4 hPa 0,0 l/m 0 min 0 min 0 W/m 3,2 km/h (1 Bft) 97,87 %
19.06.2022 03:28 21,4 C 20,6 C 17,2 C 84 % 1006,4 hPa 0,0 l/m 0 min 0 min 0 W/m 3,2 km/h (1 Bft) 97,87 %
19.06.2022 03:30 21,4 C 20,6 C 17,2 C 84 % 1006,4 hPa 0,0 l/m 0 min 0 min 0 W/m 3,2 km/h (1 Bft) 95,65 %
19.06.2022 03:32 21,4 C 20,6 C 17,2 C 85 % 1006,4 hPa 0,0 l/m 0 min 0 min 0 W/m 3,2 km/h (1 Bft) 97,87 %
19.06.2022 03:34 21,4 C 20,6 C 17,2 C 85 % 1006,5 hPa 0,0 l/m 0 min 0 min 0 W/m 3,2 km/h (1 Bft) 97,87 %
19.06.2022 03:36 21,3 C 20,6 C 17,2 C 85 % 1006,6 hPa 0,0 l/m 0 min 0 min 0 W/m 9,7 km/h (2 Bft) 95,74 %
19.06.2022 03:38 21,3 C 20,0 C 17,2 C 85 % 1006,6 hPa 0,0 l/m 0 min 0 min 0 W/m 16,1 km/h (3 Bft) 93,62 %
19.06.2022 03:40 21,2 C 20,0 C 17,2 C 85 % 1006,5 hPa 0,0 l/m 0 min 0 min 0 W/m 12,9 km/h (3 Bft) 93,62 %
19.06.2022 03:42 21,2 C 20,0 C 17,2 C 84 % 1006,5 hPa 0,0 l/m 0 min 0 min 0 W/m 9,7 km/h (2 Bft) 93,48 %
19.06.2022 03:44 21,1 C 20,0 C 16,7 C 84 % 1006,5 hPa 0,0 l/m 0 min 0 min 0 W/m 9,7 km/h (2 Bft) 95,74 %
19.06.2022 03:46 21,1 C 20,0 C 16,7 C 84 % 1006,4 hPa 0,0 l/m 0 min 0 min 0 W/m 6,4 km/h (2 Bft) 95,74 %
19.06.2022 03:48 21,0 C 20,0 C 16,7 C 84 % 1006,4 hPa 0,0 l/m 0 min 0 min 0 W/m 12,9 km/h (3 Bft) 93,62 %
19.06.2022 03:50 20,9 C 20,0 C 16,7 C 84 % 1006,4 hPa 0,0 l/m 0 min 0 min 0 W/m 16,1 km/h (3 Bft) 95,74 %
19.06.2022 03:52 20,8 C 20,0 C 16,7 C 84 % 1006,5 hPa 0,0 l/m 0 min 0 min 0 W/m 16,1 km/h (3 Bft) 95,74 %
19.06.2022 03:54 20,8 C 19,4 C 16,7 C 84 % 1006,5 hPa 0,0 l/m 0 min 0 min 0 W/m 12,9 km/h (3 Bft) 93,48 %
19.06.2022 03:56 20,7 C 19,4 C 16,1 C 84 % 1006,5 hPa 0,0 l/m 0 min 0 min 0 W/m 9,7 km/h (2 Bft) 95,74 %
19.06.2022 03:58 20,6 C 19,4 C 16,1 C 84 % 1006,6 hPa 0,0 l/m 0 min 0 min 0 W/m 16,1 km/h (3 Bft) 93,62 %
19.06.2022 04:00 20,5 C 19,4 C 16,1 C 84 % 1006,5 hPa 0,0 l/m 0 min 0 min 0 W/m 12,9 km/h (3 Bft) 95,74 %
19.06.2022 04:05 20,3 C 18,9 C 16,1 C 84 % 1006,3 hPa 0,0 l/m 0 min 0 min 0 W/m 9,7 km/h (2 Bft) 100,00 %
19.06.2022 04:06 20,2 C 18,9 C 16,1 C 85 % 1006,3 hPa 0,0 l/m 0 min 0 min 0 W/m 12,9 km/h (3 Bft) 95,65 %
19.06.2022 04:08 20,1 C 18,9 C 16,1 C 85 % 1006,4 hPa 0,0 l/m 0 min 0 min 0 W/m 9,7 km/h (2 Bft) 97,87 %
19.06.2022 04:10 20,1 C 18,9 C 16,1 C 85 % 1006,6 hPa 0,0 l/m 0 min 0 min 0 W/m 19,3 km/h (3 Bft) 95,74 %
19.06.2022 04:12 20,0 C 18,9 C 16,1 C 85 % 1006,6 hPa 0,0 l/m 0 min 0 min 0 W/m 12,9 km/h (3 Bft) 97,87 %
19.06.2022 04:14 19,9 C 18,9 C 16,1 C 85 % 1006,7 hPa 0,0 l/m 0 min 0 min 0 W/m 29,0 km/h (5 Bft) 100,00 %
19.06.2022 04:16 19,8 C 18,9 C 15,6 C 85 % 1006,6 hPa 0,0 l/m 0 min 0 min 0 W/m 9,7 km/h (2 Bft) 100,00 %
19.06.2022 04:18 19,8 C 18,9 C 15,6 C 85 % 1006,6 hPa 0,0 l/m 0 min 0 min 0 W/m 16,1 km/h (3 Bft) 100,00 %
19.06.2022 04:20 19,7 C 18,3 C 15,6 C 84 % 1006,7 hPa 0,0 l/m 0 min 0 min 0 W/m 19,3 km/h (3 Bft) 97,87 %
19.06.2022 04:22 19,6 C 18,3 C 15,0 C 84 % 1006,6 hPa 0,0 l/m 0 min 0 min 0 W/m 25,7 km/h (4 Bft) 100,00 %
19.06.2022 04:24 19,4 C 18,3 C 15,0 C 84 % 1006,7 hPa 0,0 l/m 0 min 0 min 0 W/m 12,9 km/h (3 Bft) 100,00 %
19.06.2022 04:26 19,3 C 18,3 C 15,0 C 84 % 1006,8 hPa 0,0 l/m 0 min 0 min 0 W/m 16,1 km/h (3 Bft) 100,00 %
19.06.2022 04:28 19,2 C 18,3 C 15,0 C 84 % 1007,0 hPa 0,0 l/m 0 min 0 min 0 W/m 25,7 km/h (4 Bft) 97,87 %
19.06.2022 04:30 19,1 C 18,3 C 15,0 C 84 % 1007,4 hPa 0,0 l/m 0 min 0 min 0 W/m 19,3 km/h (3 Bft) 100,00 %
19.06.2022 04:32 19,0 C 17,8 C 15,0 C 84 % 1007,8 hPa 0,0 l/m 0 min 0 min 0 W/m 29,0 km/h (5 Bft) 97,87 %
19.06.2022 04:34 18,8 C 17,8 C 15,0 C 84 % 1007,8 hPa 0,0 l/m 0 min 0 min 0 W/m 22,5 km/h (4 Bft) 97,87 %
19.06.2022 04:36 18,7 C 17,8 C 15,0 C 83 % 1006,9 hPa 0,0 l/m 0 min 0 min 0 W/m 32,2 km/h (5 Bft) 97,87 %
19.06.2022 04:38 18,5 C 17,2 C 14,4 C 83 % 1006,7 hPa 0,0 l/m 0 min 0 min 0 W/m 12,9 km/h (3 Bft) 100,00 %
19.06.2022 04:40 18,3 C 17,2 C 14,4 C 84 % 1006,4 hPa 0,0 l/m 0 min 0 min 0 W/m 9,7 km/h (2 Bft) 100,00 %
19.06.2022 04:42 18,3 C 17,2 C 14,4 C 84 % 1006,6 hPa 0,0 l/m 0 min 0 min 0 W/m 16,1 km/h (3 Bft) 100,00 %
19.06.2022 04:44 18,2 C 17,2 C 14,4 C 84 % 1007,0 hPa 0,0 l/m 0 min 0 min 0 W/m 19,3 km/h (3 Bft) 97,87 %
19.06.2022 04:46 18,2 C 17,2 C 14,4 C 84 % 1007,6 hPa 0,0 l/m 0 min 0 min 0 W/m 19,3 km/h (3 Bft) 100,00 %
19.06.2022 04:48 18,1 C 17,2 C 14,4 C 84 % 1007,3 hPa 0,0 l/m 0 min 0 min 0 W/m 22,5 km/h (4 Bft) 100,00 %
19.06.2022 04:50 17,9 C 17,2 C 13,9 C 84 % 1006,9 hPa 0,0 l/m 0 min 0 min 0 W/m 12,9 km/h (3 Bft) 100,00 %
19.06.2022 04:52 17,9 C 17,2 C 13,9 C 84 % 1006,6 hPa 0,0 l/m 0 min 0 min 0 W/m 9,7 km/h (2 Bft) 100,00 %
19.06.2022 04:54 17,8 C 17,2 C 13,9 C 84 % 1006,8 hPa 0,0 l/m 0 min 0 min 0 W/m 12,9 km/h (3 Bft) 100,00 %
19.06.2022 04:56 17,8 C 17,2 C 13,9 C 84 % 1007,4 hPa 0,0 l/m 0 min 0 min 0 W/m 16,1 km/h (3 Bft) 97,87 %
19.06.2022 04:58 17,7 C 16,7 C 13,9 C 84 % 1007,5 hPa 0,0 l/m 0 min 0 min 0 W/m 19,3 km/h (3 Bft) 95,74 %
19.06.2022 05:00 17,7 C 16,7 C 13,9 C 84 % 1007,1 hPa 0,0 l/m 0 min 0 min 0 W/m 9,7 km/h (2 Bft) 97,87 %
19.06.2022 05:02 17,6 C 16,7 C 13,3 C 84 % 1007,0 hPa 0,0 l/m 0 min 0 min 0 W/m 19,3 km/h (3 Bft) 100,00 %
19.06.2022 05:04 17,5 C 16,7 C 13,3 C 84 % 1007,2 hPa 0,0 l/m 0 min 0 min 0 W/m 19,3 km/h (3 Bft) 100,00 %
19.06.2022 05:06 17,4 C 16,7 C 13,9 C 84 % 1007,7 hPa 0,0 l/m 0 min 0 min 0 W/m 19,3 km/h (3 Bft) 97,83 %
19.06.2022 05:08 17,4 C 16,7 C 13,3 C 84 % 1007,6 hPa 0,0 l/m 0 min 0 min 0 W/m 32,2 km/h (5 Bft) 100,00 %
19.06.2022 05:10 17,3 C 16,7 C 13,3 C 84 % 1007,4 hPa 0,0 l/m 0 min 0 min 0 W/m 19,3 km/h (3 Bft) 97,87 %
19.06.2022 05:12 17,3 C 16,7 C 13,3 C 84 % 1007,8 hPa 0,0 l/m 0 min 0 min 0 W/m 22,5 km/h (4 Bft) 97,87 %
19.06.2022 05:14 17,2 C 16,1 C 13,3 C 84 % 1008,1 hPa 0,0 l/m 0 min 0 min 1 W/m 32,2 km/h (5 Bft) 97,87 %
19.06.2022 05:16 17,2 C 16,1 C 13,3 C 84 % 1007,9 hPa 0,0 l/m 0 min 0 min 5 W/m 16,1 km/h (3 Bft) 97,83 %
19.06.2022 05:18 17,1 C 16,1 C 13,3 C 84 % 1007,8 hPa 0,0 l/m 0 min 0 min 5 W/m 22,5 km/h (4 Bft) 97,87 %
19.06.2022 05:20 16,9 C 16,1 C 12,8 C 84 % 1008,0 hPa 0,0 l/m 0 min 0 min 5 W/m 32,2 km/h (5 Bft) 97,87 %
19.06.2022 05:22 16,8 C 16,1 C 12,8 C 84 % 1008,0 hPa 0,0 l/m 0 min 0 min 7 W/m 16,1 km/h (3 Bft) 95,74 %
19.06.2022 05:24 16,8 C 16,1 C 12,8 C 83 % 1007,9 hPa 0,0 l/m 0 min 0 min 7 W/m 22,5 km/h (4 Bft) 97,87 %
19.06.2022 05:26 16,7 C 16,1 C 12,8 C 84 % 1008,0 hPa 0,0 l/m 0 min 0 min 7 W/m 19,3 km/h (3 Bft) 97,87 %
19.06.2022 05:28 16,6 C 16,1 C 12,8 C 84 % 1008,1 hPa 0,0 l/m 0 min 0 min 8 W/m 32,2 km/h (5 Bft) 95,65 %
19.06.2022 05:30 16,5 C 15,6 C 12,8 C 84 % 1008,1 hPa 0,0 l/m 0 min 0 min 9 W/m 32,2 km/h (5 Bft) 93,62 %
19.06.2022 05:32 16,4 C 15,6 C 12,8 C 84 % 1008,1 hPa 0,0 l/m 0 min 0 min 10 W/m 25,7 km/h (4 Bft) 95,74 %
19.06.2022 05:34 16,4 C 15,6 C 12,8 C 83 % 1008,1 hPa 0,0 l/m 0 min 0 min 11 W/m 22,5 km/h (4 Bft) 95,74 %
19.06.2022 05:36 16,3 C 15,6 C 12,8 C 83 % 1008,1 hPa 0,0 l/m 0 min 0 min 11 W/m 19,3 km/h (3 Bft) 93,62 %
19.06.2022 05:38 16,3 C 15,6 C 12,8 C 83 % 1008,2 hPa 0,0 l/m 0 min 0 min 12 W/m 16,1 km/h (3 Bft) 95,74 %
19.06.2022 05:40 16,3 C 15,6 C 12,2 C 83 % 1008,3 hPa 0,0 l/m 0 min 0 min 12 W/m 25,7 km/h (4 Bft) 95,65 %
19.06.2022 05:42 16,2 C 15,6 C 12,2 C 83 % 1008,3 hPa 0,0 l/m 0 min 0 min 14 W/m 32,2 km/h (5 Bft) 93,62 %
19.06.2022 05:44 16,2 C 15,6 C 12,2 C 82 % 1008,4 hPa 0,0 l/m 0 min 0 min 14 W/m 19,3 km/h (3 Bft) 95,74 %
19.06.2022 05:46 16,1 C 15,6 C 12,2 C 82 % 1008,6 hPa 0,0 l/m 0 min 0 min 16 W/m 22,5 km/h (4 Bft) 95,74 %
19.06.2022 05:48 16,1 C 15,6 C 12,2 C 82 % 1008,5 hPa 0,0 l/m 0 min 0 min 16 W/m 19,3 km/h (3 Bft) 93,62 %
19.06.2022 05:50 16,1 C 15,6 C 12,2 C 82 % 1008,7 hPa 0,0 l/m 0 min 0 min 16 W/m 19,3 km/h (3 Bft) 93,62 %
19.06.2022 05:52 16,1 C 15,6 C 12,2 C 82 % 1008,8 hPa 0,0 l/m 0 min 0 min 18 W/m 29,0 km/h (5 Bft) 95,65 %
19.06.2022 05:54 16,0 C 15,6 C 12,2 C 82 % 1008,7 hPa 0,0 l/m 0 min 0 min 18 W/m 19,3 km/h (3 Bft) 95,74 %
19.06.2022 05:56 15,9 C 15,6 C 12,2 C 82 % 1008,6 hPa 0,0 l/m 0 min 0 min 18 W/m 32,2 km/h (5 Bft) 93,62 %
19.06.2022 05:58 15,9 C 15,0 C 12,2 C 81 % 1008,7 hPa 0,0 l/m 0 min 0 min 18 W/m 19,3 km/h (3 Bft) 97,87 %
19.06.2022 06:00 15,8 C 15,0 C 12,2 C 81 % 1008,7 hPa 0,0 l/m 0 min 0 min 18 W/m 22,5 km/h (4 Bft) 100,00 %
19.06.2022 06:02 15,8 C 15,0 C 11,7 C 81 % 1009,0 hPa 0,0 l/m 0 min 0 min 19 W/m 29,0 km/h (5 Bft) 100,00 %
19.06.2022 06:04 15,7 C 15,0 C 11,7 C 81 % 1009,3 hPa 0,0 l/m 0 min 0 min 19 W/m 22,5 km/h (4 Bft) 100,00 %
19.06.2022 06:07 15,6 C 15,0 C 11,7 C 80 % 1009,3 hPa 0,0 l/m 0 min 0 min 23 W/m 19,3 km/h (3 Bft) 100,00 %
19.06.2022 06:08 15,6 C 15,0 C 11,7 C 80 % 1009,3 hPa 0,0 l/m 0 min 0 min 22 W/m 19,3 km/h (3 Bft) 99,01 %
19.06.2022 06:10 15,5 C 15,0 C 11,7 C 80 % 1009,3 hPa 0,0 l/m 0 min 0 min 24 W/m 35,4 km/h (5 Bft) 97,87 %
19.06.2022 06:12 15,4 C 15,0 C 11,7 C 80 % 1009,2 hPa 0,0 l/m 0 min 0 min 25 W/m 12,9 km/h (3 Bft) 100,00 %
19.06.2022 06:14 15,4 C 15,0 C 11,7 C 80 % 1009,2 hPa 0,0 l/m 0 min 0 min 26 W/m 22,5 km/h (4 Bft) 100,00 %
19.06.2022 06:16 15,3 C 15,0 C 11,7 C 79 % 1009,4 hPa 0,0 l/m 0 min 0 min 28 W/m 25,7 km/h (4 Bft) 100,00 %
19.06.2022 06:18 15,3 C 15,0 C 11,7 C 79 % 1009,3 hPa 0,0 l/m 0 min 0 min 29 W/m 22,5 km/h (4 Bft) 100,00 %
19.06.2022 06:20 15,3 C 15,0 C 11,7 C 79 % 1009,2 hPa 0,0 l/m 0 min 0 min 31 W/m 19,3 km/h (3 Bft) 100,00 %
19.06.2022 06:22 15,3 C 15,0 C 11,7 C 79 % 1009,1 hPa 0,0 l/m 0 min 0 min 33 W/m 12,9 km/h (3 Bft) 100,00 %
19.06.2022 06:24 15,3 C 15,0 C 11,7 C 79 % 1009,1 hPa 0,0 l/m 0 min 0 min 34 W/m 32,2 km/h (5 Bft) 100,00 %
19.06.2022 06:26 15,3 C 15,0 C 11,7 C 78 % 1009,0 hPa 0,0 l/m 0 min 0 min 35 W/m 25,7 km/h (4 Bft) 95,74 %
19.06.2022 06:28 15,3 C 15,0 C 11,7 C 78 % 1008,9 hPa 0,0 l/m 0 min 0 min 37 W/m 16,1 km/h (3 Bft) 97,87 %
19.06.2022 06:30 15,3 C 15,0 C 11,7 C 77 % 1008,8 hPa 0,0 l/m 0 min 0 min 38 W/m 25,7 km/h (4 Bft) 97,37 %
19.06.2022 06:32 15,3 C 15,0 C 11,7 C 77 % 1008,8 hPa 0,0 l/m 0 min 0 min 40 W/m 16,1 km/h (3 Bft) 95,92 %
19.06.2022 06:34 15,3 C 15,0 C 11,7 C 77 % 1008,8 hPa 0,0 l/m 0 min 0 min 41 W/m 25,7 km/h (4 Bft) 97,87 %
19.06.2022 06:36 15,3 C 15,0 C 11,7 C 77 % 1008,8 hPa 0,0 l/m 0 min 0 min 43 W/m 29,0 km/h (5 Bft) 95,74 %
19.06.2022 06:38 15,3 C 15,0 C 11,7 C 77 % 1008,8 hPa 0,0 l/m 0 min 0 min 45 W/m 16,1 km/h (3 Bft) 97,87 %
19.06.2022 06:40 15,3 C 15,0 C 11,7 C 76 % 1009,1 hPa 0,0 l/m 0 min 0 min 46 W/m 9,7 km/h (2 Bft) 97,83 %
19.06.2022 06:42 15,4 C 15,0 C 11,7 C 76 % 1008,9 hPa 0,0 l/m 0 min 0 min 47 W/m 22,5 km/h (4 Bft) 95,74 %
19.06.2022 06:44 15,4 C 15,0 C 11,7 C 75 % 1008,9 hPa 0,0 l/m 0 min 0 min 48 W/m 22,5 km/h (4 Bft) 97,87 %
19.06.2022 06:46 15,4 C 15,0 C 11,7 C 75 % 1008,8 hPa 0,0 l/m 0 min 0 min 50 W/m 19,3 km/h (3 Bft) 95,74 %
19.06.2022 06:48 15,4 C 15,0 C 11,7 C 75 % 1008,7 hPa 0,0 l/m 0 min 0 min 51 W/m 12,9 km/h (3 Bft) 97,87 %
19.06.2022 06:50 15,4 C 15,6 C 11,7 C 75 % 1008,7 hPa 0,0 l/m 0 min 0 min 53 W/m 12,9 km/h (3 Bft) 97,87 %
19.06.2022 06:52 15,4 C 15,6 C 11,7 C 74 % 1008,9 hPa 0,0 l/m 0 min 0 min 55 W/m 19,3 km/h (3 Bft) 97,87 %
19.06.2022 06:54 15,5 C 15,6 C 11,7 C 74 % 1008,8 hPa 0,0 l/m 0 min 0 min 57 W/m 9,7 km/h (2 Bft) 97,83 %
19.06.2022 06:56 15,5 C 15,6 C 11,7 C 74 % 1009,1 hPa 0,0 l/m 0 min 0 min 59 W/m 19,3 km/h (3 Bft) 95,74 %
19.06.2022 06:58 15,6 C 15,6 C 11,7 C 74 % 1009,5 hPa 0,0 l/m 0 min 0 min 61 W/m 16,1 km/h (3 Bft) 95,74 %
19.06.2022 07:00 15,6 C 15,6 C 11,7 C 73 % 1009,9 hPa 0,0 l/m 0 min 0 min 63 W/m 29,0 km/h (5 Bft) 97,87 %
19.06.2022 07:02 15,6 C 15,6 C 12,2 C 72 % 1009,5 hPa 0,0 l/m 0 min 0 min 65 W/m 16,1 km/h (3 Bft) 97,87 %
19.06.2022 07:04 15,6 C 15,6 C 12,2 C 72 % 1009,2 hPa 0,0 l/m 0 min 0 min 68 W/m 12,9 km/h (3 Bft) 95,65 %
19.06.2022 07:06 15,6 C 15,6 C 12,2 C 72 % 1009,2 hPa 0,0 l/m 0 min 0 min 70 W/m 16,1 km/h (3 Bft) 95,74 %
19.06.2022 07:08 15,6 C 15,6 C 12,2 C 72 % 1009,3 hPa 0,0 l/m 0 min 0 min 75 W/m 16,1 km/h (3 Bft) 97,87 %
19.06.2022 07:10 15,7 C 15,6 C 12,2 C 72 % 1009,4 hPa 0,0 l/m 0 min 0 min 80 W/m 16,1 km/h (3 Bft) 95,74 %
19.06.2022 07:12 15,7 C 15,6 C 12,2 C 72 % 1009,4 hPa 0,0 l/m 0 min 0 min 84 W/m 16,1 km/h (3 Bft) 97,87 %
19.06.2022 07:14 15,7 C 15,6 C 12,2 C 71 % 1009,3 hPa 0,0 l/m 0 min 0 min 88 W/m 16,1 km/h (3 Bft) 97,87 %
19.06.2022 07:16 15,7 C 15,6 C 12,2 C 71 % 1009,2 hPa 0,0 l/m 0 min 0 min 92 W/m 19,3 km/h (3 Bft) 89,13 %
19.06.2022 07:18 15,7 C 15,6 C 12,2 C 72 % 1009,2 hPa 0,0 l/m 0 min 0 min 94 W/m 16,1 km/h (3 Bft) 97,87 %
19.06.2022 07:20 15,8 C 15,6 C 12,2 C 72 % 1009,2 hPa 0,0 l/m 0 min 0 min 97 W/m 12,9 km/h (3 Bft) 95,74 %
19.06.2022 07:22 15,8 C 15,6 C 12,2 C 71 % 1009,0 hPa 0,0 l/m 0 min 0 min 98 W/m 25,7 km/h (4 Bft) 97,87 %
19.06.2022 07:24 15,8 C 15,6 C 12,2 C 72 % 1009,1 hPa 0,0 l/m 0 min 0 min 99 W/m 22,5 km/h (4 Bft) 97,87 %
19.06.2022 07:26 15,8 C 15,6 C 12,2 C 72 % 1009,2 hPa 0,0 l/m 0 min 0 min 102 W/m 19,3 km/h (3 Bft) 95,74 %
19.06.2022 07:28 15,8 C 15,6 C 12,2 C 72 % 1009,0 hPa 0,0 l/m 0 min 0 min 104 W/m 19,3 km/h (3 Bft) 93,48 %
19.06.2022 07:30 15,8 C 15,6 C 12,2 C 71 % 1009,0 hPa 0,0 l/m 0 min 0 min 105 W/m 25,7 km/h (4 Bft) 97,87 %
19.06.2022 07:32 15,8 C 15,6 C 12,2 C 72 % 1008,6 hPa 0,0 l/m 0 min 0 min 107 W/m 12,9 km/h (3 Bft) 97,87 %
19.06.2022 07:34 15,8 C 15,6 C 12,2 C 72 % 1008,8 hPa 0,0 l/m 0 min 0 min 109 W/m 12,9 km/h (3 Bft) 97,87 %
19.06.2022 07:36 15,8 C 15,6 C 12,2 C 72 % 1008,9 hPa 0,0 l/m 0 min 0 min 114 W/m 12,9 km/h (3 Bft) 97,87 %
19.06.2022 07:38 15,9 C 15,6 C 12,2 C 72 % 1008,6 hPa 0,0 l/m 0 min 0 min 143 W/m 12,9 km/h (3 Bft) 97,87 %
19.06.2022 07:40 15,9 C 15,6 C 12,2 C 72 % 1008,6 hPa 0,0 l/m 2 min 0 min 191 W/m 9,7 km/h (2 Bft) 97,83 %
19.06.2022 07:42 15,9 C 16,1 C 12,2 C 73 % 1008,7 hPa 0,0 l/m 2 min 0 min 212 W/m 22,5 km/h (4 Bft) 97,87 %
19.06.2022 07:44 15,9 C 16,1 C 12,2 C 72 % 1008,6 hPa 0,0 l/m 2 min 0 min 202 W/m 16,1 km/h (3 Bft) 95,74 %
19.06.2022 07:46 16,0 C 16,1 C 12,2 C 73 % 1008,4 hPa 0,0 l/m 2 min 0 min 207 W/m 19,3 km/h (3 Bft) 97,87 %
19.06.2022 07:54 16,2 C 16,7 C 12,2 C 73 % 1008,2 hPa 0,0 l/m 5 min 0 min 219 W/m 12,9 km/h (3 Bft) 92,31 %
19.06.2022 07:56 16,3 C 16,7 C 12,8 C 73 % 1008,2 hPa 0,0 l/m 2 min 0 min 225 W/m 6,4 km/h (2 Bft) 100,00 %
19.06.2022 07:58 16,4 C 16,7 C 12,8 C 73 % 1008,2 hPa 0,0 l/m 2 min 0 min 256 W/m 12,9 km/h (3 Bft) 97,83 %
19.06.2022 08:00 16,5 C 17,2 C 12,8 C 74 % 1008,2 hPa 0,0 l/m 2 min 0 min 283 W/m 12,9 km/h (3 Bft) 97,87 %
19.06.2022 08:02 16,6 C 17,2 C 13,3 C 73 % 1008,2 hPa 0,0 l/m 2 min 0 min 298 W/m 16,1 km/h (3 Bft) 97,87 %
19.06.2022 08:04 16,7 C 17,2 C 13,3 C 73 % 1008,1 hPa 0,0 l/m 2 min 0 min 318 W/m 16,1 km/h (3 Bft) 95,74 %
19.06.2022 08:06 16,8 C 17,8 C 13,3 C 73 % 1007,8 hPa 0,0 l/m 2 min 0 min 327 W/m 12,9 km/h (3 Bft) 98,28 %
19.06.2022 08:08 16,9 C 18,3 C 13,3 C 74 % 1007,8 hPa 0,0 l/m 2 min 0 min 335 W/m 6,4 km/h (2 Bft) 97,22 %
19.06.2022 08:10 17,1 C 18,3 C 13,9 C 73 % 1007,8 hPa 0,0 l/m 2 min 0 min 341 W/m 6,4 km/h (2 Bft) 95,65 %
19.06.2022 08:12 17,3 C 18,9 C 13,9 C 73 % 1007,9 hPa 0,0 l/m 2 min 0 min 343 W/m 16,1 km/h (3 Bft) 97,87 %
19.06.2022 08:14 17,4 C 18,9 C 13,9 C 72 % 1007,9 hPa 0,0 l/m 2 min 0 min 310 W/m 12,9 km/h (3 Bft) 95,74 %
19.06.2022 08:16 17,5 C 18,9 C 13,9 C 72 % 1007,7 hPa 0,0 l/m 2 min 0 min 223 W/m 9,7 km/h (2 Bft) 95,74 %
19.06.2022 08:18 17,5 C 18,9 C 13,9 C 71 % 1007,7 hPa 0,0 l/m 0 min 0 min 173 W/m 9,7 km/h (2 Bft) 95,74 %
19.06.2022 08:20 17,6 C 18,3 C 13,9 C 72 % 1007,9 hPa 0,0 l/m 0 min 0 min 195 W/m 16,1 km/h (3 Bft) 97,87 %
19.06.2022 08:22 17,6 C 18,3 C 14,4 C 72 % 1007,9 hPa 0,0 l/m 2 min 0 min 283 W/m 12,9 km/h (3 Bft) 97,83 %
19.06.2022 08:24 17,6 C 18,9 C 14,4 C 72 % 1007,9 hPa 0,0 l/m 2 min 0 min 284 W/m 6,4 km/h (2 Bft) 95,74 %
19.06.2022 08:26 17,7 C 18,9 C 14,4 C 72 % 1008,1 hPa 0,0 l/m 2 min 0 min 321 W/m 9,7 km/h (2 Bft) 95,74 %
19.06.2022 08:28 17,7 C 19,4 C 15,0 C 72 % 1008,1 hPa 0,0 l/m 2 min 0 min 343 W/m 6,4 km/h (2 Bft) 97,87 %
19.06.2022 08:30 17,8 C 20,0 C 15,0 C 72 % 1008,3 hPa 0,0 l/m 2 min 0 min 350 W/m 6,4 km/h (2 Bft) 97,87 %
19.06.2022 08:32 17,9 C 20,0 C 15,0 C 72 % 1008,6 hPa 0,0 l/m 2 min 0 min 361 W/m 16,1 km/h (3 Bft) 93,62 %
19.06.2022 08:34 18,0 C 20,6 C 15,6 C 71 % 1008,9 hPa 0,0 l/m 2 min 0 min 369 W/m 16,1 km/h (3 Bft) 97,83 %
19.06.2022 08:36 18,1 C 20,6 C 15,6 C 71 % 1008,5 hPa 0,0 l/m 2 min 0 min 374 W/m 6,4 km/h (2 Bft) 96,61 %
19.06.2022 08:38 18,2 C 21,1 C 16,1 C 71 % 1008,5 hPa 0,0 l/m 2 min 0 min 370 W/m 9,7 km/h (2 Bft) 97,14 %
19.06.2022 08:40 18,2 C 21,1 C 15,6 C 71 % 1008,5 hPa 0,0 l/m 2 min 0 min 250 W/m 9,7 km/h (2 Bft) 97,87 %
19.06.2022 08:42 18,3 C 21,1 C 15,6 C 71 % 1008,6 hPa 0,0 l/m 2 min 0 min 338 W/m 9,7 km/h (2 Bft) 95,74 %
19.06.2022 08:44 18,4 C 21,1 C 16,1 C 70 % 1008,7 hPa 0,0 l/m 2 min 0 min 378 W/m 3,2 km/h (1 Bft) 97,87 %
19.06.2022 08:46 18,6 C 21,1 C 16,1 C 70 % 1008,9 hPa 0,0 l/m 2 min 0 min 387 W/m 6,4 km/h (2 Bft) 95,65 %
19.06.2022 08:48 18,7 C 21,7 C 16,1 C 69 % 1009,3 hPa 0,0 l/m 2 min 0 min 378 W/m 9,7 km/h (2 Bft) 97,87 %
19.06.2022 08:50 18,7 C 21,1 C 16,1 C 69 % 1009,3 hPa 0,0 l/m 2 min 0 min 396 W/m 6,4 km/h (2 Bft) 95,74 %
19.06.2022 08:52 18,7 C 21,1 C 16,7 C 68 % 1009,3 hPa 0,0 l/m 2 min 0 min 421 W/m 6,4 km/h (2 Bft) 97,87 %
19.06.2022 08:54 18,6 C 21,7 C 16,7 C 69 % 1009,2 hPa 0,0 l/m 2 min 0 min 419 W/m 6,4 km/h (2 Bft) 97,87 %
19.06.2022 08:56 18,8 C 22,2 C 16,7 C 69 % 1009,4 hPa 0,0 l/m 2 min 0 min 405 W/m 6,4 km/h (2 Bft) 97,87 %
19.06.2022 08:58 18,8 C 21,7 C 16,7 C 68 % 1009,4 hPa 0,0 l/m 2 min 0 min 416 W/m 3,2 km/h (1 Bft) 97,83 %
19.06.2022 09:00 18,8 C 22,2 C 16,7 C 68 % 1009,4 hPa 0,0 l/m 2 min 0 min 359 W/m 3,2 km/h (1 Bft) 97,87 %
19.06.2022 09:02 18,9 C 22,2 C 16,7 C 68 % 1009,7 hPa 0,0 l/m 2 min 0 min 411 W/m 6,4 km/h (2 Bft) 95,74 %
19.06.2022 09:04 19,0 C 23,3 C 17,2 C 68 % 1009,9 hPa 0,0 l/m 2 min 0 min 436 W/m 3,2 km/h (1 Bft) 93,62 %
19.06.2022 09:06 19,2 C 23,3 C 17,8 C 68 % 1010,8 hPa 0,0 l/m 2 min 0 min 533 W/m 6,4 km/h (2 Bft) 96,55 %
19.06.2022 09:08 19,3 C 23,3 C 17,8 C 69 % 1011,1 hPa 0,0 l/m 2 min 0 min 605 W/m 16,1 km/h (3 Bft) 94,44 %
19.06.2022 09:10 19,4 C 22,8 C 17,8 C 69 % 1011,4 hPa 0,0 l/m 2 min 0 min 613 W/m 16,1 km/h (3 Bft) 97,83 %
19.06.2022 09:12 19,3 C 21,7 C 17,8 C 68 % 1011,1 hPa 0,0 l/m 2 min 0 min 350 W/m 12,9 km/h (3 Bft) 97,87 %
19.06.2022 09:14 19,3 C 21,1 C 17,8 C 68 % 1011,3 hPa 0,0 l/m 2 min 0 min 299 W/m 12,9 km/h (3 Bft) 97,87 %
19.06.2022 09:16 19,2 C 21,1 C 17,2 C 68 % 1011,8 hPa 0,0 l/m 2 min 0 min 460 W/m 19,3 km/h (3 Bft) 97,87 %
19.06.2022 09:18 19,1 C 20,0 C 16,7 C 68 % 1011,8 hPa 0,0 l/m 0 min 0 min 254 W/m 12,9 km/h (3 Bft) 91,49 %
19.06.2022 09:20 18,9 C 18,9 C 16,1 C 68 % 1012,1 hPa 0,0 l/m 0 min 0 min 161 W/m 16,1 km/h (3 Bft) 95,74 %
19.06.2022 09:22 18,7 C 18,3 C 15,6 C 68 % 1012,2 hPa 0,0 l/m 0 min 0 min 116 W/m 19,3 km/h (3 Bft) 95,65 %
19.06.2022 09:24 18,5 C 18,3 C 15,6 C 69 % 1012,0 hPa 0,0 l/m 0 min 0 min 209 W/m 19,3 km/h (3 Bft) 93,62 %
19.06.2022 09:26 18,3 C 18,3 C 15,0 C 69 % 1011,9 hPa 0,0 l/m 2 min 0 min 298 W/m 12,9 km/h (3 Bft) 95,74 %
19.06.2022 09:28 18,2 C 18,9 C 15,6 C 69 % 1011,6 hPa 0,0 l/m 2 min 0 min 354 W/m 22,5 km/h (4 Bft) 95,74 %
19.06.2022 09:30 18,2 C 19,4 C 15,6 C 70 % 1011,7 hPa 0,0 l/m 2 min 0 min 410 W/m 25,7 km/h (4 Bft) 95,74 %
19.06.2022 09:32 18,2 C 18,9 C 15,6 C 70 % 1012,0 hPa 0,0 l/m 2 min 0 min 348 W/m 12,9 km/h (3 Bft) 95,74 %
19.06.2022 09:34 18,2 C 19,4 C 16,1 C 70 % 1012,0 hPa 0,0 l/m 2 min 0 min 403 W/m 19,3 km/h (3 Bft) 95,65 %
19.06.2022 09:36 18,2 C 19,4 C 16,1 C 70 % 1011,9 hPa 0,0 l/m 2 min 0 min 397 W/m 16,1 km/h (3 Bft) 94,92 %
19.06.2022 09:38 18,2 C 19,4 C 16,1 C 70 % 1012,0 hPa 0,0 l/m 2 min 0 min 313 W/m 19,3 km/h (3 Bft) 94,29 %
19.06.2022 09:40 18,2 C 19,4 C 16,1 C 70 % 1011,9 hPa 0,0 l/m 2 min 0 min 479 W/m 16,1 km/h (3 Bft) 95,74 %
19.06.2022 09:42 18,3 C 20,6 C 16,7 C 71 % 1011,8 hPa 0,0 l/m 2 min 0 min 536 W/m 12,9 km/h (3 Bft) 89,36 %
19.06.2022 09:44 18,4 C 20,6 C 17,2 C 71 % 1011,9 hPa 0,0 l/m 2 min 0 min 523 W/m 16,1 km/h (3 Bft) 95,74 %
19.06.2022 09:46 18,4 C 20,6 C 17,2 C 69 % 1012,0 hPa 0,0 l/m 2 min 0 min 506 W/m 16,1 km/h (3 Bft) 95,65 %
19.06.2022 09:48 18,4 C 20,0 C 17,2 C 69 % 1011,9 hPa 0,0 l/m 2 min 0 min 497 W/m 16,1 km/h (3 Bft) 95,74 %
19.06.2022 09:50 18,4 C 20,6 C 17,2 C 69 % 1011,7 hPa 0,0 l/m 2 min 0 min 441 W/m 12,9 km/h (3 Bft) 95,74 %
19.06.2022 09:52 18,5 C 20,0 C 17,2 C 69 % 1011,7 hPa 0,0 l/m 2 min 0 min 403 W/m 25,7 km/h (4 Bft) 93,62 %
19.06.2022 09:54 18,5 C 20,0 C 17,2 C 68 % 1011,7 hPa 0,0 l/m 2 min 0 min 467 W/m 29,0 km/h (5 Bft) 100,00 %
19.06.2022 09:56 18,4 C 20,0 C 17,2 C 68 % 1011,7 hPa 0,0 l/m 2 min 0 min 513 W/m 19,3 km/h (3 Bft) 100,00 %
19.06.2022 09:58 18,4 C 20,0 C 17,2 C 68 % 1011,5 hPa 0,0 l/m 2 min 0 min 517 W/m 16,1 km/h (3 Bft) 100,00 %
19.06.2022 10:00 18,5 C 20,6 C 17,8 C 68 % 1011,5 hPa 0,0 l/m 2 min 0 min 535 W/m 16,1 km/h (3 Bft) 95,74 %
19.06.2022 10:02 18,5 C 21,1 C 17,8 C 68 % 1011,4 hPa 0,0 l/m 2 min 0 min 570 W/m 19,3 km/h (3 Bft) 100,00 %
19.06.2022 10:04 18,6 C 20,6 C 17,8 C 67 % 1011,5 hPa 0,0 l/m 2 min 0 min 601 W/m 19,3 km/h (3 Bft) 100,00 %
19.06.2022 10:06 18,6 C 21,1 C 18,3 C 68 % 1011,4 hPa 0,0 l/m 2 min 0 min 661 W/m 16,1 km/h (3 Bft) 100,00 %
19.06.2022 10:08 18,6 C 20,6 C 17,2 C 67 % 1011,3 hPa 0,0 l/m 2 min 0 min 480 W/m 16,1 km/h (3 Bft) 100,00 %
19.06.2022 10:10 18,7 C 20,0 C 17,2 C 67 % 1011,3 hPa 0,0 l/m 2 min 0 min 409 W/m 16,1 km/h (3 Bft) 100,00 %
19.06.2022 10:12 18,7 C 20,0 C 16,7 C 67 % 1011,4 hPa 0,0 l/m 2 min 0 min 374 W/m 12,9 km/h (3 Bft) 100,00 %
19.06.2022 10:14 18,7 C 19,4 C 16,7 C 67 % 1011,5 hPa 0,0 l/m 2 min 0 min 380 W/m 12,9 km/h (3 Bft) 100,00 %
19.06.2022 10:16 18,7 C 19,4 C 16,1 C 66 % 1011,6 hPa 0,0 l/m 2 min 0 min 353 W/m 22,5 km/h (4 Bft) 100,00 %
19.06.2022 10:18 18,6 C 19,4 C 16,1 C 66 % 1011,5 hPa 0,0 l/m 2 min 0 min 371 W/m 16,1 km/h (3 Bft) 97,87 %
19.06.2022 10:20 18,6 C 19,4 C 16,1 C 66 % 1011,7 hPa 0,0 l/m 2 min 0 min 408 W/m 19,3 km/h (3 Bft) 100,00 %
19.06.2022 10:22 18,6 C 18,9 C 16,1 C 67 % 1011,7 hPa 0,0 l/m 2 min 0 min 447 W/m 12,9 km/h (3 Bft) 100,00 %
19.06.2022 10:24 18,6 C 20,0 C 16,7 C 67 % 1011,8 hPa 0,0 l/m 2 min 0 min 562 W/m 12,9 km/h (3 Bft) 100,00 %
19.06.2022 10:26 18,7 C 20,0 C 17,2 C 67 % 1011,9 hPa 0,0 l/m 2 min 0 min 499 W/m 19,3 km/h (3 Bft) 100,00 %
19.06.2022 10:28 18,7 C 20,0 C 17,2 C 67 % 1012,0 hPa 0,0 l/m 2 min 0 min 462 W/m 19,3 km/h (3 Bft) 100,00 %
19.06.2022 10:30 18,8 C 20,0 C 17,2 C 67 % 1012,1 hPa 0,0 l/m 2 min 0 min 394 W/m 19,3 km/h (3 Bft) 100,00 %
19.06.2022 10:32 18,9 C 20,0 C 16,7 C 67 % 1012,1 hPa 0,0 l/m 2 min 0 min 373 W/m 19,3 km/h (3 Bft) 100,00 %
19.06.2022 10:34 19,0 C 20,0 C 17,2 C 67 % 1012,0 hPa 0,0 l/m 2 min 0 min 402 W/m 19,3 km/h (3 Bft) 97,83 %
19.06.2022 10:36 19,1 C 20,0 C 17,2 C 66 % 1011,9 hPa 0,0 l/m 2 min 0 min 451 W/m 25,7 km/h (4 Bft) 98,31 %
19.06.2022 10:38 19,1 C 20,6 C 17,8 C 66 % 1011,9 hPa 0,0 l/m 2 min 0 min 626 W/m 16,1 km/h (3 Bft) 100,00 %
19.06.2022 10:40 19,2 C 20,6 C 17,8 C 65 % 1011,6 hPa 0,0 l/m 2 min 0 min 682 W/m 16,1 km/h (3 Bft) 100,00 %
19.06.2022 10:42 19,1 C 20,0 C 17,2 C 65 % 1011,4 hPa 0,0 l/m 2 min 0 min 419 W/m 16,1 km/h (3 Bft) 97,87 %
19.06.2022 10:44 19,2 C 20,6 C 17,2 C 65 % 1011,3 hPa 0,0 l/m 2 min 0 min 421 W/m 22,5 km/h (4 Bft) 100,00 %
19.06.2022 10:46 19,2 C 20,0 C 17,2 C 64 % 1011,3 hPa 0,0 l/m 2 min 0 min 441 W/m 19,3 km/h (3 Bft) 100,00 %
19.06.2022 10:48 19,1 C 20,0 C 16,7 C 64 % 1011,2 hPa 0,0 l/m 2 min 0 min 427 W/m 16,1 km/h (3 Bft) 100,00 %
19.06.2022 10:50 19,2 C 20,6 C 17,2 C 64 % 1011,3 hPa 0,0 l/m 2 min 0 min 449 W/m 16,1 km/h (3 Bft) 100,00 %
19.06.2022 10:52 19,3 C 21,1 C 17,8 C 65 % 1011,1 hPa 0,0 l/m 2 min 0 min 634 W/m 16,1 km/h (3 Bft) 100,00 %
19.06.2022 10:54 19,4 C 22,2 C 18,3 C 65 % 1011,0 hPa 0,0 l/m 2 min 0 min 802 W/m 12,9 km/h (3 Bft) 100,00 %
19.06.2022 10:56 19,6 C 22,2 C 18,3 C 64 % 1011,1 hPa 0,0 l/m 2 min 0 min 824 W/m 16,1 km/h (3 Bft) 97,87 %
19.06.2022 10:58 19,7 C 22,2 C 18,3 C 64 % 1011,1 hPa 0,0 l/m 2 min 0 min 707 W/m 19,3 km/h (3 Bft) 100,00 %
19.06.2022 11:00 19,8 C 21,7 C 17,8 C 64 % 1011,1 hPa 0,0 l/m 2 min 0 min 424 W/m 19,3 km/h (3 Bft) 97,87 %
19.06.2022 11:02 19,8 C 21,1 C 17,2 C 63 % 1011,0 hPa 0,0 l/m 0 min 0 min 302 W/m 12,9 km/h (3 Bft) 100,00 %
19.06.2022 11:04 19,7 C 20,6 C 16,7 C 64 % 1011,1 hPa 0,0 l/m 0 min 0 min 273 W/m 12,9 km/h (3 Bft) 100,00 %
19.06.2022 11:06 19,4 C 20,0 C 16,7 C 63 % 1011,0 hPa 0,0 l/m 0 min 0 min 270 W/m 19,3 km/h (3 Bft) 100,00 %
19.06.2022 11:08 19,3 C 19,4 C 16,1 C 65 % 1011,0 hPa 0,0 l/m 0 min 0 min 265 W/m 9,7 km/h (2 Bft) 100,00 %
19.06.2022 11:10 19,2 C 19,4 C 16,1 C 64 % 1010,9 hPa 0,0 l/m 0 min 0 min 265 W/m 16,1 km/h (3 Bft) 97,87 %
19.06.2022 11:12 19,2 C 19,4 C 16,1 C 65 % 1011,0 hPa 0,0 l/m 0 min 0 min 271 W/m 12,9 km/h (3 Bft) 100,00 %
19.06.2022 11:14 19,1 C 19,4 C 16,1 C 64 % 1011,0 hPa 0,0 l/m 0 min 0 min 280 W/m 16,1 km/h (3 Bft) 100,00 %
19.06.2022 11:16 19,1 C 19,4 C 16,1 C 64 % 1010,9 hPa 0,0 l/m 0 min 0 min 274 W/m 9,7 km/h (2 Bft) 100,00 %
19.06.2022 11:18 19,1 C 19,4 C 16,1 C 65 % 1010,9 hPa 0,0 l/m 0 min 0 min 265 W/m 19,3 km/h (3 Bft) 100,00 %
19.06.2022 11:20 19,2 C 19,4 C 16,1 C 65 % 1010,9 hPa 0,0 l/m 0 min 0 min 261 W/m 9,7 km/h (2 Bft) 97,83 %
19.06.2022 11:22 19,2 C 19,4 C 16,1 C 65 % 1010,8 hPa 0,0 l/m 0 min 0 min 253 W/m 12,9 km/h (3 Bft) 97,87 %
19.06.2022 11:24 19,2 C 19,4 C 16,1 C 65 % 1010,7 hPa 0,0 l/m 0 min 0 min 219 W/m 9,7 km/h (2 Bft) 95,74 %
19.06.2022 11:26 19,1 C 19,4 C 15,6 C 65 % 1010,6 hPa 0,0 l/m 0 min 0 min 216 W/m 6,4 km/h (2 Bft) 97,87 %
19.06.2022 11:28 19,1 C 19,4 C 15,6 C 65 % 1010,8 hPa 0,0 l/m 0 min 0 min 225 W/m 12,9 km/h (3 Bft) 97,87 %
19.06.2022 11:30 19,1 C 18,9 C 15,6 C 65 % 1010,8 hPa 0,0 l/m 0 min 0 min 220 W/m 6,4 km/h (2 Bft) 95,74 %
19.06.2022 11:32 19,1 C 19,4 C 16,1 C 66 % 1010,9 hPa 0,0 l/m 0 min 0 min 219 W/m 6,4 km/h (2 Bft) 97,87 %
19.06.2022 11:34 19,1 C 19,4 C 16,1 C 66 % 1010,9 hPa 0,0 l/m 0 min 0 min 213 W/m 6,4 km/h (2 Bft) 97,83 %
19.06.2022 11:36 19,2 C 19,4 C 15,6 C 66 % 1010,8 hPa 0,0 l/m 0 min 0 min 205 W/m 6,4 km/h (2 Bft) 96,61 %
19.06.2022 11:38 19,2 C 19,4 C 15,6 C 66 % 1010,8 hPa 0,0 l/m 0 min 0 min 200 W/m 6,4 km/h (2 Bft) 97,14 %
19.06.2022 11:40 19,1 C 19,4 C 15,6 C 66 % 1010,6 hPa 0,0 l/m 0 min 0 min 199 W/m 9,7 km/h (2 Bft) 97,87 %
19.06.2022 11:42 19,1 C 19,4 C 15,6 C 66 % 1010,5 hPa 0,0 l/m 0 min 0 min 196 W/m 9,7 km/h (2 Bft) 95,74 %
19.06.2022 11:44 19,1 C 19,4 C 15,6 C 66 % 1010,4 hPa 0,0 l/m 0 min 0 min 196 W/m 6,4 km/h (2 Bft) 91,49 %
19.06.2022 11:46 19,1 C 19,4 C 16,1 C 67 % 1010,4 hPa 0,0 l/m 0 min 0 min 198 W/m 3,2 km/h (1 Bft) 95,65 %
19.06.2022 11:48 19,1 C 19,4 C 16,1 C 67 % 1010,3 hPa 0,0 l/m 0 min 0 min 198 W/m 3,2 km/h (1 Bft) 95,74 %
19.06.2022 11:50 19,1 C 19,4 C 15,6 C 67 % 1010,3 hPa 0,0 l/m 0 min 0 min 188 W/m 6,4 km/h (2 Bft) 95,74 %
19.06.2022 11:52 19,1 C 19,4 C 15,6 C 66 % 1010,7 hPa 0,0 l/m 0 min 0 min 183 W/m 9,7 km/h (2 Bft) 91,49 %
19.06.2022 11:54 19,1 C 19,4 C 15,6 C 67 % 1010,5 hPa 0,0 l/m 0 min 0 min 193 W/m 6,4 km/h (2 Bft) 93,62 %
19.06.2022 11:56 19,1 C 19,4 C 15,6 C 67 % 1010,6 hPa 0,0 l/m 0 min 0 min 204 W/m 9,7 km/h (2 Bft) 93,48 %
19.06.2022 11:58 19,1 C 19,4 C 15,6 C 67 % 1011,2 hPa 0,0 l/m 0 min 0 min 207 W/m 6,4 km/h (2 Bft) 95,74 %
19.06.2022 12:00 19,1 C 18,9 C 15,6 C 67 % 1010,3 hPa 0,0 l/m 0 min 0 min 201 W/m 9,7 km/h (2 Bft) 93,62 %
19.06.2022 12:02 19,1 C 18,9 C 15,6 C 67 % 1010,1 hPa 0,0 l/m 0 min 0 min 171 W/m 6,4 km/h (2 Bft) 95,74 %
19.06.2022 12:04 19,1 C 19,4 C 15,6 C 68 % 1010,0 hPa 0,0 l/m 0 min 0 min 152 W/m 6,4 km/h (2 Bft) 95,74 %
19.06.2022 12:07 19,1 C 19,4 C 15,6 C 68 % 1009,3 hPa 0,0 l/m 0 min 0 min 161 W/m 9,7 km/h (2 Bft) 95,12 %
19.06.2022 12:08 19,1 C 19,4 C 15,6 C 68 % 1009,3 hPa 0,0 l/m 0 min 0 min 190 W/m 6,4 km/h (2 Bft) 90,91 %
19.06.2022 12:10 19,1 C 19,4 C 15,6 C 69 % 1009,7 hPa 0,0 l/m 0 min 0 min 212 W/m 6,4 km/h (2 Bft) 95,74 %
19.06.2022 12:12 19,1 C 19,4 C 15,6 C 69 % 1009,7 hPa 0,0 l/m 0 min 0 min 255 W/m 3,2 km/h (1 Bft) 95,74 %
19.06.2022 12:14 19,2 C 19,4 C 15,6 C 70 % 1009,5 hPa 0,0 l/m 0 min 0 min 300 W/m 6,4 km/h (2 Bft) 93,62 %
19.06.2022 12:16 19,2 C 19,4 C 15,6 C 69 % 1009,7 hPa 0,0 l/m 0 min 0 min 322 W/m 9,7 km/h (2 Bft) 95,74 %
19.06.2022 12:18 19,3 C 19,4 C 16,1 C 70 % 1010,1 hPa 0,0 l/m 0 min 0 min 332 W/m 6,4 km/h (2 Bft) 93,62 %
19.06.2022 12:20 19,3 C 19,4 C 16,1 C 69 % 1010,0 hPa 0,0 l/m 0 min 0 min 344 W/m 12,9 km/h (3 Bft) 95,74 %
19.06.2022 12:22 19,4 C 20,0 C 16,1 C 68 % 1009,9 hPa 0,0 l/m 0 min 0 min 367 W/m 19,3 km/h (3 Bft) 93,48 %
19.06.2022 12:24 19,4 C 20,0 C 16,7 C 67 % 1009,7 hPa 0,0 l/m 0 min 0 min 383 W/m 6,4 km/h (2 Bft) 95,74 %
19.06.2022 12:26 19,4 C 20,0 C 16,1 C 67 % 1009,5 hPa 0,0 l/m 0 min 0 min 372 W/m 19,3 km/h (3 Bft) 95,74 %
19.06.2022 12:28 19,4 C 20,0 C 16,1 C 67 % 1009,5 hPa 0,0 l/m 0 min 0 min 367 W/m 12,9 km/h (3 Bft) 95,74 %
19.06.2022 12:30 19,4 C 20,0 C 16,1 C 67 % 1009,5 hPa 0,0 l/m 0 min 0 min 407 W/m 25,7 km/h (4 Bft) 97,87 %
19.06.2022 12:32 19,4 C 20,0 C 16,7 C 66 % 1009,7 hPa 0,0 l/m 2 min 0 min 514 W/m 19,3 km/h (3 Bft) 95,74 %
19.06.2022 12:34 19,5 C 20,6 C 17,2 C 67 % 1009,9 hPa 0,0 l/m 2 min 0 min 488 W/m 19,3 km/h (3 Bft) 95,65 %
19.06.2022 12:36 19,5 C 20,6 C 17,2 C 67 % 1010,0 hPa 0,0 l/m 2 min 0 min 514 W/m 12,9 km/h (3 Bft) 97,87 %
19.06.2022 12:38 19,6 C 21,1 C 18,9 C 67 % 1010,0 hPa 0,0 l/m 2 min 0 min 657 W/m 12,9 km/h (3 Bft) 95,74 %
19.06.2022 12:40 19,6 C 21,1 C 20,0 C 66 % 1009,9 hPa 0,0 l/m 2 min 0 min 803 W/m 19,3 km/h (3 Bft) 98,00 %
19.06.2022 12:42 19,7 C 21,1 C 19,4 C 67 % 1009,7 hPa 0,0 l/m 2 min 0 min 803 W/m 25,7 km/h (4 Bft) 97,87 %
19.06.2022 12:44 19,8 C 21,7 C 19,4 C 67 % 1009,8 hPa 0,0 l/m 2 min 0 min 803 W/m 16,1 km/h (3 Bft) 95,65 %
19.06.2022 12:46 19,9 C 22,2 C 20,6 C 66 % 1009,7 hPa 0,0 l/m 2 min 0 min 913 W/m 16,1 km/h (3 Bft) 97,87 %
19.06.2022 12:48 20,1 C 22,8 C 20,6 C 66 % 1009,8 hPa 0,0 l/m 2 min 0 min 1005 W/m 19,3 km/h (3 Bft) 97,87 %
19.06.2022 12:50 20,3 C 22,8 C 21,1 C 66 % 1010,0 hPa 0,0 l/m 2 min 0 min 1009 W/m 12,9 km/h (3 Bft) 97,87 %
19.06.2022 12:52 20,4 C 22,2 C 20,6 C 65 % 1009,9 hPa 0,0 l/m 2 min 0 min 923 W/m 16,1 km/h (3 Bft) 100,00 %
19.06.2022 12:54 20,4 C 22,8 C 20,6 C 65 % 1009,9 hPa 0,0 l/m 2 min 0 min 685 W/m 12,9 km/h (3 Bft) 100,00 %
19.06.2022 12:56 20,5 C 22,8 C 21,1 C 66 % 1009,9 hPa 0,0 l/m 2 min 0 min 988 W/m 16,1 km/h (3 Bft) 100,00 %
19.06.2022 12:58 20,6 C 22,8 C 21,1 C 65 % 1010,0 hPa 0,0 l/m 2 min 0 min 906 W/m 16,1 km/h (3 Bft) 100,00 %
19.06.2022 13:00 20,7 C 22,8 C 20,6 C 65 % 1010,1 hPa 0,0 l/m 2 min 0 min 807 W/m 12,9 km/h (3 Bft) 100,00 %
19.06.2022 13:02 20,7 C 22,2 C 20,6 C 64 % 1010,2 hPa 0,0 l/m 2 min 0 min 535 W/m 12,9 km/h (3 Bft) 100,00 %
19.06.2022 13:04 20,8 C 22,2 C 20,0 C 64 % 1010,1 hPa 0,0 l/m 2 min 0 min 517 W/m 12,9 km/h (3 Bft) 100,00 %
19.06.2022 13:06 20,8 C 22,8 C 20,0 C 65 % 1010,0 hPa 0,0 l/m 2 min 0 min 501 W/m 9,7 km/h (2 Bft) 100,00 %
19.06.2022 13:08 20,8 C 21,7 C 19,4 C 64 % 1009,9 hPa 0,0 l/m 2 min 0 min 456 W/m 12,9 km/h (3 Bft) 100,00 %
19.06.2022 13:10 20,8 C 21,7 C 18,9 C 64 % 1009,9 hPa 0,0 l/m 2 min 0 min 468 W/m 12,9 km/h (3 Bft) 100,00 %
19.06.2022 13:12 20,8 C 22,2 C 18,9 C 65 % 1009,9 hPa 0,0 l/m 2 min 0 min 537 W/m 9,7 km/h (2 Bft) 100,00 %
19.06.2022 13:14 20,8 C 22,8 C 19,4 C 65 % 1009,9 hPa 0,0 l/m 2 min 0 min 661 W/m 3,2 km/h (1 Bft) 95,74 %
19.06.2022 13:16 20,9 C 22,2 C 18,9 C 65 % 1009,7 hPa 0,0 l/m 2 min 0 min 516 W/m 12,9 km/h (3 Bft) 100,00 %
19.06.2022 13:18 21,0 C 22,2 C 18,9 C 64 % 1009,9 hPa 0,0 l/m 0 min 0 min 370 W/m 9,7 km/h (2 Bft) 100,00 %
19.06.2022 13:20 21,0 C 22,2 C 18,9 C 65 % 1010,0 hPa 0,0 l/m 0 min 0 min 388 W/m 6,4 km/h (2 Bft) 100,00 %
19.06.2022 13:22 21,0 C 21,7 C 18,3 C 64 % 1010,2 hPa 0,0 l/m 0 min 0 min 389 W/m 12,9 km/h (3 Bft) 97,87 %
19.06.2022 13:24 21,0 C 21,7 C 18,3 C 64 % 1010,2 hPa 0,0 l/m 2 min 0 min 461 W/m 16,1 km/h (3 Bft) 97,87 %
19.06.2022 13:26 21,1 C 22,2 C 18,9 C 65 % 1010,1 hPa 0,0 l/m 2 min 0 min 478 W/m 9,7 km/h (2 Bft) 97,87 %
19.06.2022 13:28 21,1 C 22,2 C 18,9 C 65 % 1010,1 hPa 0,0 l/m 2 min 0 min 539 W/m 9,7 km/h (2 Bft) 97,87 %
19.06.2022 13:30 21,1 C 22,8 C 18,9 C 65 % 1010,3 hPa 0,0 l/m 2 min 0 min 483 W/m 9,7 km/h (2 Bft) 97,87 %
19.06.2022 13:32 21,2 C 22,2 C 18,9 C 65 % 1010,5 hPa 0,0 l/m 2 min 0 min 511 W/m 19,3 km/h (3 Bft) 97,83 %
19.06.2022 13:34 21,2 C 21,7 C 18,9 C 65 % 1010,5 hPa 0,0 l/m 2 min 0 min 514 W/m 9,7 km/h (2 Bft) 97,87 %
19.06.2022 13:36 21,2 C 22,2 C 19,4 C 65 % 1010,4 hPa 0,0 l/m 2 min 0 min 696 W/m 19,3 km/h (3 Bft) 95,74 %
19.06.2022 13:38 21,2 C 22,8 C 20,6 C 65 % 1010,4 hPa 0,0 l/m 2 min 0 min 792 W/m 16,1 km/h (3 Bft) 97,87 %
19.06.2022 13:40 21,3 C 22,8 C 20,6 C 64 % 1010,4 hPa 0,0 l/m 2 min 0 min 828 W/m 22,5 km/h (4 Bft) 97,87 %
19.06.2022 13:42 21,3 C 22,8 C 21,7 C 64 % 1010,3 hPa 0,0 l/m 2 min 0 min 867 W/m 19,3 km/h (3 Bft) 97,87 %
19.06.2022 13:44 21,2 C 22,8 C 21,1 C 63 % 1010,4 hPa 0,0 l/m 2 min 0 min 782 W/m 32,2 km/h (5 Bft) 97,83 %
19.06.2022 13:46 21,2 C 22,2 C 20,6 C 64 % 1010,6 hPa 0,0 l/m 2 min 0 min 728 W/m 25,7 km/h (4 Bft) 95,74 %
19.06.2022 13:48 21,2 C 22,8 C 21,1 C 64 % 1010,7 hPa 0,0 l/m 2 min 0 min 714 W/m 16,1 km/h (3 Bft) 97,87 %
19.06.2022 13:50 21,3 C 22,8 C 21,1 C 65 % 1010,9 hPa 0,0 l/m 2 min 0 min 650 W/m 19,3 km/h (3 Bft) 97,87 %
19.06.2022 13:52 21,2 C 22,2 C 20,6 C 64 % 1010,9 hPa 0,0 l/m 2 min 0 min 638 W/m 16,1 km/h (3 Bft) 97,87 %
19.06.2022 13:54 21,2 C 22,2 C 20,6 C 65 % 1010,9 hPa 0,0 l/m 2 min 0 min 690 W/m 25,7 km/h (4 Bft) 97,87 %
19.06.2022 13:56 21,2 C 22,8 C 20,0 C 65 % 1011,1 hPa 0,0 l/m 2 min 0 min 692 W/m 16,1 km/h (3 Bft) 97,83 %
19.06.2022 13:58 21,3 C 23,3 C 20,0 C 65 % 1011,1 hPa 0,0 l/m 2 min 0 min 680 W/m 9,7 km/h (2 Bft) 100,00 %
19.06.2022 14:00 21,4 C 22,8 C 20,0 C 65 % 1011,0 hPa 0,0 l/m 2 min 0 min 653 W/m 12,9 km/h (3 Bft) 100,00 %
19.06.2022 14:02 21,4 C 22,8 C 19,4 C 65 % 1011,0 hPa 0,0 l/m 2 min 0 min 698 W/m 16,1 km/h (3 Bft) 100,00 %
19.06.2022 14:04 21,4 C 22,8 C 19,4 C 65 % 1011,1 hPa 0,0 l/m 2 min 0 min 672 W/m 19,3 km/h (3 Bft) 100,00 %
19.06.2022 14:06 21,4 C 22,8 C 18,9 C 64 % 1011,2 hPa 0,0 l/m 2 min 0 min 609 W/m 22,5 km/h (4 Bft) 100,00 %
19.06.2022 14:08 21,3 C 22,2 C 18,9 C 64 % 1011,2 hPa 0,0 l/m 2 min 0 min 826 W/m 12,9 km/h (3 Bft) 97,83 %
19.06.2022 14:10 21,3 C 22,8 C 18,9 C 65 % 1011,0 hPa 0,0 l/m 2 min 0 min 899 W/m 16,1 km/h (3 Bft) 97,87 %
19.06.2022 14:12 21,4 C 23,3 C 18,3 C 65 % 1010,9 hPa 0,0 l/m 2 min 0 min 893 W/m 22,5 km/h (4 Bft) 100,00 %
19.06.2022 14:14 21,4 C 23,3 C 18,3 C 64 % 1011,0 hPa 0,0 l/m 2 min 0 min 835 W/m 19,3 km/h (3 Bft) 100,00 %
19.06.2022 14:16 21,5 C 23,3 C 18,3 C 64 % 1010,9 hPa 0,0 l/m 2 min 0 min 884 W/m 16,1 km/h (3 Bft) 97,87 %
19.06.2022 14:18 21,5 C 22,8 C 18,3 C 64 % 1010,6 hPa 0,0 l/m 2 min 0 min 605 W/m 25,7 km/h (4 Bft) 95,74 %
19.06.2022 14:20 21,5 C 23,3 C 18,3 C 64 % 1010,5 hPa 0,0 l/m 2 min 0 min 788 W/m 12,9 km/h (3 Bft) 97,83 %
19.06.2022 14:22 21,5 C 23,9 C 18,3 C 65 % 1010,7 hPa 0,0 l/m 2 min 0 min 910 W/m 29,0 km/h (5 Bft) 97,87 %
19.06.2022 14:24 21,6 C 23,9 C 18,3 C 64 % 1011,0 hPa 0,0 l/m 2 min 0 min 929 W/m 16,1 km/h (3 Bft) 97,87 %
19.06.2022 14:26 21,6 C 23,9 C 18,3 C 64 % 1011,1 hPa 0,0 l/m 2 min 0 min 928 W/m 25,7 km/h (4 Bft) 97,87 %
19.06.2022 14:28 21,7 C 23,9 C 18,3 C 64 % 1011,1 hPa 0,0 l/m 2 min 0 min 923 W/m 19,3 km/h (3 Bft) 95,74 %
19.06.2022 14:30 21,7 C 23,9 C 18,3 C 64 % 1011,1 hPa 0,0 l/m 2 min 0 min 851 W/m 25,7 km/h (4 Bft) 97,87 %
19.06.2022 14:32 21,8 C 23,9 C 18,3 C 65 % 1011,2 hPa 0,0 l/m 2 min 0 min 891 W/m 19,3 km/h (3 Bft) 97,83 %
19.06.2022 14:34 21,8 C 23,3 C 18,3 C 65 % 1011,4 hPa 0,0 l/m 2 min 0 min 710 W/m 22,5 km/h (4 Bft) 97,87 %
19.06.2022 14:36 21,8 C 22,8 C 18,3 C 64 % 1011,5 hPa 0,0 l/m 0 min 0 min 426 W/m 12,9 km/h (3 Bft) 93,62 %
19.06.2022 14:38 21,8 C 22,8 C 18,3 C 65 % 1011,6 hPa 0,0 l/m 2 min 0 min 633 W/m 19,3 km/h (3 Bft) 95,74 %
19.06.2022 14:40 21,8 C 22,8 C 18,3 C 65 % 1011,6 hPa 0,0 l/m 2 min 0 min 568 W/m 6,4 km/h (2 Bft) 97,87 %
19.06.2022 14:42 21,8 C 22,8 C 18,3 C 65 % 1011,6 hPa 0,0 l/m 2 min 0 min 596 W/m 22,5 km/h (4 Bft) 95,74 %
19.06.2022 14:44 21,7 C 22,2 C 18,3 C 65 % 1011,8 hPa 0,0 l/m 2 min 0 min 554 W/m 16,1 km/h (3 Bft) 95,65 %
19.06.2022 14:46 21,7 C 22,2 C 18,3 C 66 % 1011,9 hPa 0,0 l/m 0 min 0 min 393 W/m 12,9 km/h (3 Bft) 97,87 %
19.06.2022 14:48 21,6 C 22,2 C 18,3 C 66 % 1011,9 hPa 0,0 l/m 0 min 0 min 394 W/m 19,3 km/h (3 Bft) 97,87 %
19.06.2022 14:50 21,6 C 21,7 C 18,3 C 65 % 1011,8 hPa 0,0 l/m 0 min 0 min 413 W/m 22,5 km/h (4 Bft) 97,87 %
19.06.2022 14:52 21,5 C 21,7 C 18,3 C 66 % 1011,8 hPa 0,0 l/m 2 min 0 min 486 W/m 16,1 km/h (3 Bft) 95,74 %
19.06.2022 14:54 21,5 C 22,2 C 18,3 C 66 % 1012,0 hPa 0,0 l/m 2 min 0 min 644 W/m 12,9 km/h (3 Bft) 95,74 %
19.06.2022 14:56 21,6 C 23,3 C 18,3 C 67 % 1012,1 hPa 0,0 l/m 2 min 0 min 787 W/m 19,3 km/h (3 Bft) 95,65 %
19.06.2022 14:58 21,7 C 23,9 C 18,9 C 66 % 1012,2 hPa 0,0 l/m 2 min 0 min 905 W/m 9,7 km/h (2 Bft) 97,87 %
19.06.2022 15:00 21,8 C 23,9 C 18,9 C 66 % 1012,3 hPa 0,0 l/m 2 min 0 min 890 W/m 22,5 km/h (4 Bft) 100,00 %
19.06.2022 15:02 21,9 C 23,9 C 18,9 C 65 % 1012,4 hPa 0,0 l/m 2 min 0 min 830 W/m 16,1 km/h (3 Bft) 100,00 %
19.06.2022 15:04 22,0 C 23,9 C 18,9 C 65 % 1012,5 hPa 0,0 l/m 2 min 0 min 818 W/m 25,7 km/h (4 Bft) 100,00 %
19.06.2022 15:06 22,1 C 23,9 C 18,3 C 66 % 1012,5 hPa 0,0 l/m 2 min 0 min 794 W/m 16,1 km/h (3 Bft) 97,87 %
19.06.2022 15:08 22,1 C 23,9 C 18,9 C 65 % 1012,5 hPa 0,0 l/m 2 min 0 min 776 W/m 12,9 km/h (3 Bft) 97,83 %
19.06.2022 15:10 22,2 C 24,4 C 18,9 C 66 % 1012,5 hPa 0,0 l/m 2 min 0 min 851 W/m 22,5 km/h (4 Bft) 100,00 %
19.06.2022 15:12 22,3 C 24,4 C 18,9 C 66 % 1012,6 hPa 0,0 l/m 2 min 0 min 797 W/m 22,5 km/h (4 Bft) 100,00 %
19.06.2022 15:14 22,4 C 24,4 C 18,9 C 65 % 1012,7 hPa 0,0 l/m 2 min 0 min 805 W/m 25,7 km/h (4 Bft) 100,00 %
19.06.2022 15:16 22,4 C 23,9 C 18,3 C 64 % 1012,7 hPa 0,0 l/m 2 min 0 min 817 W/m 16,1 km/h (3 Bft) 97,87 %
19.06.2022 15:18 22,4 C 23,9 C 18,9 C 65 % 1012,6 hPa 0,0 l/m 2 min 0 min 803 W/m 16,1 km/h (3 Bft) 97,87 %
19.06.2022 15:20 22,5 C 24,4 C 18,9 C 65 % 1012,5 hPa 0,0 l/m 2 min 0 min 802 W/m 19,3 km/h (3 Bft) 100,00 %
19.06.2022 15:22 22,6 C 24,4 C 18,9 C 65 % 1012,5 hPa 0,0 l/m 2 min 0 min 840 W/m 12,9 km/h (3 Bft) 95,74 %
19.06.2022 15:24 22,6 C 23,9 C 18,9 C 64 % 1012,6 hPa 0,0 l/m 2 min 0 min 634 W/m 16,1 km/h (3 Bft) 97,87 %
19.06.2022 15:26 22,6 C 23,9 C 18,9 C 64 % 1012,6 hPa 0,0 l/m 2 min 0 min 634 W/m 19,3 km/h (3 Bft) 95,74 %
19.06.2022 15:28 22,5 C 23,3 C 18,9 C 64 % 1012,6 hPa 0,0 l/m 2 min 0 min 556 W/m 19,3 km/h (3 Bft) 95,74 %
19.06.2022 15:30 22,4 C 22,8 C 18,9 C 64 % 1012,6 hPa 0,0 l/m 0 min 0 min 361 W/m 19,3 km/h (3 Bft) 93,62 %
19.06.2022 15:32 22,3 C 22,8 C 18,9 C 64 % 1012,5 hPa 0,0 l/m 0 min 0 min 409 W/m 16,1 km/h (3 Bft) 95,65 %
19.06.2022 15:34 22,2 C 23,3 C 18,9 C 64 % 1012,5 hPa 0,0 l/m 2 min 0 min 471 W/m 16,1 km/h (3 Bft) 95,74 %
19.06.2022 15:36 22,3 C 23,9 C 18,9 C 65 % 1012,3 hPa 0,0 l/m 2 min 0 min 553 W/m 16,1 km/h (3 Bft) 95,74 %
19.06.2022 15:38 22,2 C 23,9 C 18,9 C 65 % 1012,2 hPa 0,0 l/m 2 min 0 min 565 W/m 19,3 km/h (3 Bft) 95,74 %
19.06.2022 15:40 22,3 C 23,3 C 18,9 C 65 % 1012,2 hPa 0,0 l/m 2 min 0 min 555 W/m 16,1 km/h (3 Bft) 95,74 %
19.06.2022 15:42 22,2 C 23,3 C 18,9 C 65 % 1012,2 hPa 0,0 l/m 2 min 0 min 531 W/m 25,7 km/h (4 Bft) 95,65 %
19.06.2022 15:44 22,2 C 22,8 C 18,3 C 65 % 1012,2 hPa 0,0 l/m 2 min 0 min 427 W/m 12,9 km/h (3 Bft) 95,74 %
19.06.2022 15:46 22,2 C 22,8 C 18,3 C 65 % 1012,3 hPa 0,0 l/m 2 min 0 min 454 W/m 16,1 km/h (3 Bft) 95,74 %
19.06.2022 15:48 22,1 C 22,8 C 18,3 C 65 % 1012,3 hPa 0,0 l/m 2 min 0 min 543 W/m 12,9 km/h (3 Bft) 95,74 %
19.06.2022 15:50 22,1 C 23,9 C 18,9 C 65 % 1012,4 hPa 0,0 l/m 2 min 0 min 698 W/m 16,1 km/h (3 Bft) 95,74 %
19.06.2022 15:52 22,2 C 25,0 C 18,9 C 65 % 1012,3 hPa 0,0 l/m 2 min 0 min 927 W/m 9,7 km/h (2 Bft) 93,62 %
19.06.2022 15:54 22,3 C 25,0 C 18,9 C 65 % 1012,4 hPa 0,0 l/m 2 min 0 min 859 W/m 22,5 km/h (4 Bft) 95,65 %
19.06.2022 15:56 22,4 C 25,0 C 18,9 C 64 % 1012,3 hPa 0,0 l/m 2 min 0 min 818 W/m 22,5 km/h (4 Bft) 95,74 %
19.06.2022 15:58 22,5 C 25,6 C 18,9 C 65 % 1012,4 hPa 0,0 l/m 2 min 0 min 791 W/m 22,5 km/h (4 Bft) 97,87 %
19.06.2022 16:00 22,6 C 25,6 C 18,9 C 64 % 1012,4 hPa 0,0 l/m 2 min 0 min 781 W/m 19,3 km/h (3 Bft) 97,87 %
19.06.2022 16:02 22,7 C 25,6 C 18,9 C 64 % 1012,5 hPa 0,0 l/m 2 min 0 min 773 W/m 22,5 km/h (4 Bft) 97,87 %
19.06.2022 16:04 22,7 C 25,6 C 19,4 C 64 % 1012,4 hPa 0,0 l/m 2 min 0 min 772 W/m 25,7 km/h (4 Bft) 97,87 %
19.06.2022 16:06 22,8 C 25,6 C 18,9 C 63 % 1012,5 hPa 0,0 l/m 2 min 0 min 740 W/m 32,2 km/h (5 Bft) 97,83 %
19.06.2022 16:08 22,8 C 26,1 C 19,4 C 64 % 1012,5 hPa 0,0 l/m 2 min 0 min 865 W/m 12,9 km/h (3 Bft) 97,87 %
19.06.2022 16:10 22,8 C 26,1 C 19,4 C 64 % 1012,5 hPa 0,0 l/m 2 min 0 min 881 W/m 22,5 km/h (4 Bft) 97,87 %
19.06.2022 16:12 22,9 C 26,1 C 19,4 C 64 % 1012,5 hPa 0,0 l/m 2 min 0 min 885 W/m 38,6 km/h (5 Bft) 95,74 %
19.06.2022 16:14 22,9 C 26,1 C 19,4 C 64 % 1012,5 hPa 0,0 l/m 2 min 0 min 828 W/m 16,1 km/h (3 Bft) 100,00 %
19.06.2022 16:16 22,9 C 26,1 C 19,4 C 63 % 1012,6 hPa 0,0 l/m 2 min 0 min 783 W/m 22,5 km/h (4 Bft) 97,87 %
19.06.2022 16:18 23,0 C 26,7 C 19,4 C 63 % 1012,6 hPa 0,0 l/m 2 min 0 min 758 W/m 25,7 km/h (4 Bft) 97,83 %
19.06.2022 16:20 22,9 C 26,1 C 18,9 C 62 % 1012,7 hPa 0,0 l/m 2 min 0 min 739 W/m 25,7 km/h (4 Bft) 100,00 %
19.06.2022 16:22 22,9 C 26,1 C 19,4 C 63 % 1012,8 hPa 0,0 l/m 2 min 0 min 735 W/m 25,7 km/h (4 Bft) 100,00 %
19.06.2022 16:24 22,7 C 25,6 C 18,9 C 63 % 1012,7 hPa 0,0 l/m 2 min 0 min 720 W/m 19,3 km/h (3 Bft) 100,00 %
19.06.2022 16:26 22,6 C 25,6 C 18,9 C 63 % 1012,7 hPa 0,0 l/m 2 min 0 min 710 W/m 19,3 km/h (3 Bft) 100,00 %
19.06.2022 16:28 22,5 C 26,1 C 18,9 C 63 % 1012,8 hPa 0,0 l/m 2 min 0 min 726 W/m 35,4 km/h (5 Bft) 97,87 %
19.06.2022 16:30 22,6 C 26,7 C 19,4 C 64 % 1013,0 hPa 0,0 l/m 2 min 0 min 710 W/m 25,7 km/h (4 Bft) 97,83 %
19.06.2022 16:32 22,6 C 26,1 C 18,9 C 63 % 1013,1 hPa 0,0 l/m 2 min 0 min 709 W/m 25,7 km/h (4 Bft) 100,00 %
19.06.2022 16:34 22,4 C 26,1 C 18,9 C 63 % 1013,2 hPa 0,0 l/m 2 min 0 min 696 W/m 16,1 km/h (3 Bft) 100,00 %
19.06.2022 16:36 22,4 C 26,1 C 18,9 C 63 % 1013,3 hPa 0,0 l/m 2 min 0 min 696 W/m 16,1 km/h (3 Bft) 97,87 %
19.06.2022 16:38 22,4 C 26,7 C 18,9 C 64 % 1013,2 hPa 0,0 l/m 2 min 0 min 695 W/m 19,3 km/h (3 Bft) 100,00 %
19.06.2022 16:40 22,4 C 25,6 C 18,9 C 63 % 1013,2 hPa 0,0 l/m 2 min 0 min 684 W/m 45,1 km/h (6 Bft) 100,00 %
19.06.2022 16:42 22,3 C 25,0 C 18,9 C 63 % 1013,1 hPa 0,0 l/m 2 min 0 min 677 W/m 32,2 km/h (5 Bft) 97,83 %
19.06.2022 16:44 22,3 C 25,6 C 18,9 C 64 % 1013,1 hPa 0,0 l/m 2 min 0 min 672 W/m 19,3 km/h (3 Bft) 100,00 %
19.06.2022 16:46 22,2 C 26,1 C 18,9 C 64 % 1013,2 hPa 0,0 l/m 2 min 0 min 669 W/m 19,3 km/h (3 Bft) 97,87 %
19.06.2022 16:48 22,2 C 26,1 C 18,9 C 64 % 1013,2 hPa 0,0 l/m 2 min 0 min 668 W/m 22,5 km/h (4 Bft) 100,00 %
19.06.2022 16:50 22,2 C 26,7 C 18,9 C 64 % 1013,2 hPa 0,0 l/m 2 min 0 min 659 W/m 22,5 km/h (4 Bft) 97,87 %
19.06.2022 16:52 22,1 C 26,1 C 18,9 C 64 % 1013,1 hPa 0,0 l/m 2 min 0 min 655 W/m 22,5 km/h (4 Bft) 97,87 %
19.06.2022 16:54 22,1 C 26,1 C 18,9 C 65 % 1013,1 hPa 0,0 l/m 2 min 0 min 657 W/m 25,7 km/h (4 Bft) 97,87 %
19.06.2022 16:56 21,9 C 26,1 C 18,9 C 64 % 1013,1 hPa 0,0 l/m 2 min 0 min 649 W/m 16,1 km/h (3 Bft) 97,83 %
19.06.2022 16:58 22,0 C 26,7 C 18,9 C 65 % 1013,1 hPa 0,0 l/m 2 min 0 min 649 W/m 16,1 km/h (3 Bft) 97,87 %
19.06.2022 17:00 22,1 C 26,7 C 18,9 C 65 % 1013,1 hPa 0,0 l/m 2 min 0 min 642 W/m 19,3 km/h (3 Bft) 97,87 %
19.06.2022 17:02 22,1 C 26,7 C 19,4 C 64 % 1013,1 hPa 0,0 l/m 2 min 0 min 648 W/m 12,9 km/h (3 Bft) 97,87 %
19.06.2022 17:04 22,1 C 26,1 C 19,4 C 64 % 1013,0 hPa 0,0 l/m 2 min 0 min 617 W/m 22,5 km/h (4 Bft) 97,87 %
19.06.2022 17:06 22,1 C 24,4 C 18,9 C 64 % 1013,0 hPa 0,0 l/m 2 min 0 min 444 W/m 25,7 km/h (4 Bft) 97,83 %
19.06.2022 17:08 21,9 C 23,3 C 18,3 C 65 % 1012,9 hPa 0,0 l/m 0 min 0 min 271 W/m 12,9 km/h (3 Bft) 97,87 %
19.06.2022 17:10 21,8 C 23,9 C 18,3 C 66 % 1012,9 hPa 0,0 l/m 0 min 0 min 274 W/m 16,1 km/h (3 Bft) 95,74 %
19.06.2022 17:12 21,8 C 24,4 C 18,9 C 65 % 1012,9 hPa 0,0 l/m 2 min 0 min 621 W/m 19,3 km/h (3 Bft) 97,87 %
19.06.2022 17:14 21,8 C 23,9 C 18,9 C 64 % 1012,9 hPa 0,0 l/m 2 min 0 min 352 W/m 22,5 km/h (4 Bft) 97,87 %
19.06.2022 17:16 21,7 C 23,3 C 18,3 C 64 % 1012,7 hPa 0,0 l/m 0 min 0 min 246 W/m 16,1 km/h (3 Bft) 97,87 %
19.06.2022 17:18 21,6 C 22,2 C 18,3 C 65 % 1012,8 hPa 0,0 l/m 0 min 0 min 225 W/m 25,7 km/h (4 Bft) 95,65 %
19.06.2022 17:20 21,5 C 21,7 C 17,8 C 64 % 1012,8 hPa 0,0 l/m 0 min 0 min 194 W/m 25,7 km/h (4 Bft) 97,87 %
19.06.2022 17:22 21,4 C 21,7 C 17,8 C 65 % 1012,8 hPa 0,0 l/m 0 min 0 min 170 W/m 19,3 km/h (3 Bft) 97,87 %
19.06.2022 17:24 21,2 C 21,1 C 17,8 C 65 % 1012,7 hPa 0,0 l/m 0 min 0 min 178 W/m 19,3 km/h (3 Bft) 97,87 %
19.06.2022 17:26 21,2 C 21,1 C 17,8 C 65 % 1012,7 hPa 0,0 l/m 0 min 0 min 205 W/m 19,3 km/h (3 Bft) 95,74 %
19.06.2022 17:28 21,1 C 21,7 C 17,8 C 65 % 1012,7 hPa 0,0 l/m 0 min 0 min 253 W/m 9,7 km/h (2 Bft) 93,62 %
19.06.2022 17:30 21,1 C 22,2 C 17,8 C 66 % 1012,7 hPa 0,0 l/m 0 min 0 min 246 W/m 12,9 km/h (3 Bft) 95,65 %
19.06.2022 17:32 21,1 C 22,2 C 17,8 C 65 % 1012,7 hPa 0,0 l/m 0 min 0 min 238 W/m 19,3 km/h (3 Bft) 97,87 %
19.06.2022 17:34 21,1 C 22,2 C 17,8 C 66 % 1012,7 hPa 0,0 l/m 0 min 0 min 288 W/m 16,1 km/h (3 Bft) 97,87 %
19.06.2022 17:36 21,1 C 22,2 C 17,8 C 66 % 1012,7 hPa 0,0 l/m 0 min 0 min 260 W/m 16,1 km/h (3 Bft) 97,87 %
19.06.2022 17:38 21,1 C 21,7 C 17,8 C 65 % 1012,8 hPa 0,0 l/m 0 min 0 min 259 W/m 25,7 km/h (4 Bft) 95,74 %
19.06.2022 17:40 21,1 C 22,2 C 17,8 C 65 % 1012,7 hPa 0,0 l/m 2 min 0 min 337 W/m 19,3 km/h (3 Bft) 97,83 %
19.06.2022 17:42 21,1 C 23,3 C 17,8 C 66 % 1012,6 hPa 0,0 l/m 2 min 0 min 359 W/m 16,1 km/h (3 Bft) 93,62 %
19.06.2022 17:44 21,2 C 23,9 C 18,3 C 65 % 1012,6 hPa 0,0 l/m 2 min 0 min 390 W/m 22,5 km/h (4 Bft) 97,87 %
19.06.2022 17:46 21,3 C 25,0 C 18,3 C 66 % 1012,7 hPa 0,0 l/m 2 min 0 min 555 W/m 9,7 km/h (2 Bft) 97,87 %
19.06.2022 17:48 21,5 C 25,6 C 18,9 C 66 % 1012,6 hPa 0,0 l/m 2 min 0 min 524 W/m 19,3 km/h (3 Bft) 95,74 %
19.06.2022 17:50 21,6 C 25,6 C 18,9 C 66 % 1012,6 hPa 0,0 l/m 2 min 0 min 510 W/m 19,3 km/h (3 Bft) 97,87 %
19.06.2022 17:52 21,7 C 25,0 C 18,3 C 65 % 1012,6 hPa 0,0 l/m 2 min 0 min 509 W/m 19,3 km/h (3 Bft) 97,87 %
19.06.2022 17:54 21,7 C 25,0 C 18,3 C 65 % 1012,3 hPa 0,0 l/m 2 min 0 min 503 W/m 16,1 km/h (3 Bft) 97,83 %
19.06.2022 17:56 21,8 C 25,6 C 18,9 C 65 % 1012,3 hPa 0,0 l/m 2 min 0 min 496 W/m 9,7 km/h (2 Bft) 95,74 %
19.06.2022 17:58 21,8 C 25,6 C 18,9 C 65 % 1012,3 hPa 0,0 l/m 2 min 0 min 428 W/m 16,1 km/h (3 Bft) 97,87 %
19.06.2022 18:00 21,8 C 25,0 C 18,3 C 66 % 1012,3 hPa 0,0 l/m 2 min 0 min 426 W/m 19,3 km/h (3 Bft) 97,87 %
19.06.2022 18:02 21,7 C 25,0 C 18,3 C 67 % 1012,3 hPa 0,0 l/m 2 min 0 min 493 W/m 22,5 km/h (4 Bft) 97,87 %
19.06.2022 18:04 21,7 C 23,9 C 18,3 C 67 % 1012,1 hPa 0,0 l/m 2 min 0 min 453 W/m 16,1 km/h (3 Bft) 100,00 %
19.06.2022 18:07 21,5 C 23,9 C 18,3 C 66 % 1012,0 hPa 0,0 l/m 3 min 0 min 386 W/m 19,3 km/h (3 Bft) 100,00 %
19.06.2022 18:08 21,4 C 23,3 C 18,3 C 67 % 1012,0 hPa 0,0 l/m 1 min 0 min 295 W/m 16,1 km/h (3 Bft) 100,00 %
19.06.2022 18:10 21,4 C 22,8 C 17,8 C 67 % 1011,8 hPa 0,0 l/m 0 min 0 min 263 W/m 9,7 km/h (2 Bft) 100,00 %
19.06.2022 18:12 21,3 C 23,3 C 18,3 C 68 % 1011,6 hPa 0,0 l/m 0 min 0 min 264 W/m 9,7 km/h (2 Bft) 100,00 %
19.06.2022 18:14 21,2 C 23,3 C 18,3 C 69 % 1011,6 hPa 0,0 l/m 2 min 0 min 344 W/m 22,5 km/h (4 Bft) 97,87 %
19.06.2022 18:16 21,2 C 23,9 C 17,8 C 68 % 1011,5 hPa 0,0 l/m 2 min 0 min 484 W/m 22,5 km/h (4 Bft) 100,00 %
19.06.2022 18:18 21,1 C 23,9 C 17,8 C 68 % 1011,4 hPa 0,0 l/m 2 min 0 min 461 W/m 32,2 km/h (5 Bft) 100,00 %
19.06.2022 18:20 21,1 C 24,4 C 17,8 C 69 % 1011,3 hPa 0,0 l/m 2 min 0 min 452 W/m 12,9 km/h (3 Bft) 97,87 %
19.06.2022 18:22 21,1 C 25,0 C 18,3 C 69 % 1011,2 hPa 0,0 l/m 2 min 0 min 449 W/m 12,9 km/h (3 Bft) 97,87 %
19.06.2022 18:24 21,1 C 25,0 C 18,3 C 69 % 1011,2 hPa 0,0 l/m 2 min 0 min 444 W/m 19,3 km/h (3 Bft) 100,00 %
19.06.2022 18:26 21,1 C 25,0 C 18,3 C 68 % 1011,3 hPa 0,0 l/m 2 min 0 min 417 W/m 25,7 km/h (4 Bft) 100,00 %
19.06.2022 18:28 21,1 C 25,0 C 18,3 C 69 % 1011,3 hPa 0,0 l/m 2 min 0 min 418 W/m 16,1 km/h (3 Bft) 100,00 %
19.06.2022 18:30 21,2 C 25,6 C 18,3 C 69 % 1011,3 hPa 0,0 l/m 2 min 0 min 417 W/m 19,3 km/h (3 Bft) 100,00 %
19.06.2022 18:32 21,2 C 25,0 C 18,3 C 68 % 1011,3 hPa 0,0 l/m 2 min 0 min 383 W/m 12,9 km/h (3 Bft) 97,87 %
19.06.2022 18:34 21,2 C 23,9 C 18,3 C 68 % 1011,3 hPa 0,0 l/m 2 min 0 min 297 W/m 12,9 km/h (3 Bft) 100,00 %
19.06.2022 18:36 21,1 C 22,8 C 17,8 C 68 % 1011,4 hPa 0,0 l/m 0 min 0 min 120 W/m 12,9 km/h (3 Bft) 100,00 %
19.06.2022 18:38 21,0 C 22,2 C 17,8 C 68 % 1011,3 hPa 0,0 l/m 0 min 0 min 146 W/m 12,9 km/h (3 Bft) 100,00 %
19.06.2022 18:40 20,9 C 22,2 C 17,2 C 68 % 1011,1 hPa 0,0 l/m 0 min 0 min 204 W/m 12,9 km/h (3 Bft) 97,83 %
19.06.2022 18:42 20,8 C 22,2 C 17,2 C 69 % 1011,1 hPa 0,0 l/m 2 min 0 min 274 W/m 12,9 km/h (3 Bft) 95,74 %
19.06.2022 18:44 20,8 C 23,3 C 17,8 C 69 % 1011,1 hPa 0,0 l/m 2 min 0 min 369 W/m 9,7 km/h (2 Bft) 97,87 %
19.06.2022 18:46 20,9 C 23,3 C 17,8 C 69 % 1011,2 hPa 0,0 l/m 2 min 0 min 451 W/m 16,1 km/h (3 Bft) 97,87 %
19.06.2022 18:48 20,9 C 23,3 C 17,8 C 69 % 1011,3 hPa 0,0 l/m 2 min 0 min 436 W/m 12,9 km/h (3 Bft) 97,87 %
19.06.2022 18:50 20,9 C 23,9 C 18,3 C 69 % 1011,4 hPa 0,0 l/m 2 min 0 min 314 W/m 6,4 km/h (2 Bft) 97,87 %
19.06.2022 18:52 21,0 C 23,3 C 17,8 C 68 % 1011,5 hPa 0,0 l/m 2 min 0 min 404 W/m 16,1 km/h (3 Bft) 97,62 %
19.06.2022 18:54 21,0 C 23,9 C 18,3 C 68 % 1011,4 hPa 0,0 l/m 2 min 0 min 375 W/m 16,1 km/h (3 Bft) 97,87 %
19.06.2022 18:56 21,1 C 23,9 C 18,3 C 69 % 1011,5 hPa 0,0 l/m 2 min 0 min 376 W/m 6,4 km/h (2 Bft) 95,65 %
19.06.2022 18:58 21,1 C 23,3 C 18,3 C 68 % 1011,5 hPa 0,0 l/m 0 min 0 min 198 W/m 12,9 km/h (3 Bft) 97,87 %
19.06.2022 19:00 21,1 C 22,2 C 17,8 C 68 % 1011,5 hPa 0,0 l/m 0 min 0 min 169 W/m 22,5 km/h (4 Bft) 97,87 %
19.06.2022 19:02 21,0 C 22,2 C 17,8 C 69 % 1011,5 hPa 0,0 l/m 0 min 0 min 165 W/m 16,1 km/h (3 Bft) 96,00 %
19.06.2022 19:04 20,9 C 21,1 C 17,2 C 69 % 1011,5 hPa 0,0 l/m 0 min 0 min 153 W/m 12,9 km/h (3 Bft) 95,74 %
19.06.2022 19:06 20,8 C 21,1 C 17,2 C 69 % 1011,9 hPa 0,0 l/m 0 min 0 min 181 W/m 22,5 km/h (4 Bft) 97,87 %
19.06.2022 19:08 20,8 C 21,1 C 17,2 C 69 % 1012,0 hPa 0,0 l/m 2 min 0 min 244 W/m 22,5 km/h (4 Bft) 97,83 %
19.06.2022 19:10 20,7 C 21,1 C 17,2 C 69 % 1012,2 hPa 0,0 l/m 2 min 0 min 295 W/m 25,7 km/h (4 Bft) 95,74 %
19.06.2022 19:12 20,7 C 21,1 C 17,8 C 70 % 1012,3 hPa 0,0 l/m 2 min 0 min 332 W/m 19,3 km/h (3 Bft) 97,87 %
19.06.2022 19:14 20,7 C 21,7 C 17,8 C 69 % 1012,4 hPa 0,0 l/m 2 min 0 min 350 W/m 22,5 km/h (4 Bft) 97,87 %
19.06.2022 19:16 20,7 C 21,7 C 17,2 C 69 % 1012,5 hPa 0,0 l/m 2 min 0 min 332 W/m 19,3 km/h (3 Bft) 97,87 %
19.06.2022 19:18 20,7 C 21,1 C 17,2 C 69 % 1012,4 hPa 0,0 l/m 2 min 0 min 221 W/m 32,2 km/h (5 Bft) 97,87 %
19.06.2022 19:20 20,6 C 20,6 C 17,2 C 69 % 1012,5 hPa 0,0 l/m 0 min 0 min 146 W/m 16,1 km/h (3 Bft) 93,48 %
19.06.2022 19:22 20,6 C 20,6 C 17,2 C 70 % 1012,5 hPa 0,0 l/m 0 min 0 min 132 W/m 12,9 km/h (3 Bft) 95,74 %
19.06.2022 19:24 20,5 C 20,6 C 16,7 C 70 % 1012,5 hPa 0,0 l/m 0 min 0 min 162 W/m 19,3 km/h (3 Bft) 95,74 %
19.06.2022 19:26 20,4 C 20,0 C 16,7 C 70 % 1012,5 hPa 0,0 l/m 0 min 0 min 114 W/m 19,3 km/h (3 Bft) 93,62 %
19.06.2022 19:28 20,3 C 20,0 C 16,7 C 70 % 1012,6 hPa 0,0 l/m 0 min 0 min 109 W/m 35,4 km/h (5 Bft) 93,62 %
19.06.2022 19:30 20,1 C 19,4 C 16,1 C 70 % 1012,5 hPa 0,0 l/m 0 min 0 min 99 W/m 22,5 km/h (4 Bft) 93,62 %
19.06.2022 19:32 20,1 C 19,4 C 16,1 C 71 % 1012,6 hPa 0,0 l/m 0 min 0 min 97 W/m 12,9 km/h (3 Bft) 97,83 %
19.06.2022 19:34 20,0 C 19,4 C 16,1 C 71 % 1012,6 hPa 0,0 l/m 0 min 0 min 139 W/m 25,7 km/h (4 Bft) 97,87 %
19.06.2022 19:36 19,9 C 19,4 C 16,1 C 71 % 1012,5 hPa 0,0 l/m 0 min 0 min 127 W/m 16,1 km/h (3 Bft) 95,74 %
19.06.2022 19:38 19,9 C 19,4 C 16,1 C 72 % 1012,5 hPa 0,0 l/m 0 min 0 min 109 W/m 16,1 km/h (3 Bft) 95,74 %
19.06.2022 19:40 19,9 C 19,4 C 16,1 C 72 % 1012,5 hPa 0,0 l/m 0 min 0 min 104 W/m 19,3 km/h (3 Bft) 93,62 %
19.06.2022 19:42 19,8 C 19,4 C 16,1 C 72 % 1012,6 hPa 0,0 l/m 0 min 0 min 101 W/m 16,1 km/h (3 Bft) 95,74 %
19.06.2022 19:44 19,8 C 19,4 C 16,1 C 72 % 1012,6 hPa 0,0 l/m 0 min 0 min 100 W/m 22,5 km/h (4 Bft) 95,65 %
19.06.2022 19:46 19,8 C 19,4 C 16,1 C 71 % 1012,7 hPa 0,0 l/m 0 min 0 min 97 W/m 19,3 km/h (3 Bft) 93,62 %
19.06.2022 19:48 19,8 C 19,4 C 16,1 C 72 % 1012,6 hPa 0,0 l/m 0 min 0 min 95 W/m 19,3 km/h (3 Bft) 93,62 %
19.06.2022 19:50 19,8 C 19,4 C 16,1 C 72 % 1012,6 hPa 0,0 l/m 0 min 0 min 97 W/m 25,7 km/h (4 Bft) 93,62 %
19.06.2022 19:52 19,7 C 19,4 C 16,1 C 72 % 1012,6 hPa 0,0 l/m 0 min 0 min 96 W/m 12,9 km/h (3 Bft) 93,62 %
19.06.2022 19:54 19,7 C 19,4 C 16,1 C 72 % 1012,5 hPa 0,0 l/m 0 min 0 min 88 W/m 12,9 km/h (3 Bft) 95,74 %
19.06.2022 19:56 19,7 C 19,4 C 16,1 C 72 % 1012,6 hPa 0,0 l/m 0 min 0 min 89 W/m 12,9 km/h (3 Bft) 93,48 %
19.06.2022 19:58 19,7 C 19,4 C 16,1 C 72 % 1012,5 hPa 0,0 l/m 0 min 0 min 83 W/m 9,7 km/h (2 Bft) 95,74 %
19.06.2022 20:00 19,7 C 19,4 C 16,1 C 72 % 1012,5 hPa 0,0 l/m 0 min 0 min 79 W/m 16,1 km/h (3 Bft) 93,62 %
19.06.2022 20:02 19,7 C 18,9 C 16,1 C 73 % 1012,6 hPa 0,0 l/m 0 min 0 min 69 W/m 29,0 km/h (5 Bft) 93,62 %
19.06.2022 20:04 19,6 C 18,9 C 16,1 C 73 % 1012,6 hPa 0,0 l/m 0 min 0 min 53 W/m 16,1 km/h (3 Bft) 93,62 %
19.06.2022 20:06 19,6 C 18,9 C 15,6 C 73 % 1012,7 hPa 0,0 l/m 0 min 0 min 37 W/m 19,3 km/h (3 Bft) 100,00 %
19.06.2022 20:08 19,4 C 18,9 C 15,6 C 73 % 1012,8 hPa 0,0 l/m 0 min 0 min 29 W/m 22,5 km/h (4 Bft) 100,00 %
19.06.2022 20:10 19,3 C 18,3 C 15,6 C 73 % 1012,8 hPa 0,0 l/m 0 min 0 min 25 W/m 22,5 km/h (4 Bft) 97,87 %
19.06.2022 20:12 19,2 C 18,3 C 15,0 C 74 % 1012,8 hPa 0,0 l/m 0 min 0 min 22 W/m 19,3 km/h (3 Bft) 100,00 %
19.06.2022 20:14 19,1 C 18,3 C 15,0 C 74 % 1012,8 hPa 0,0 l/m 0 min 0 min 19 W/m 25,7 km/h (4 Bft) 100,00 %
19.06.2022 20:16 18,9 C 17,8 C 15,0 C 75 % 1012,8 hPa 0,0 l/m 0 min 0 min 14 W/m 16,1 km/h (3 Bft) 100,00 %
19.06.2022 20:18 18,9 C 17,8 C 15,0 C 75 % 1012,9 hPa 0,0 l/m 0 min 0 min 10 W/m 19,3 km/h (3 Bft) 100,00 %
19.06.2022 20:20 18,8 C 17,8 C 15,0 C 75 % 1012,9 hPa 0,0 l/m 0 min 0 min 7 W/m 19,3 km/h (3 Bft) 100,00 %
19.06.2022 20:22 18,7 C 17,8 C 14,4 C 76 % 1013,0 hPa 0,0 l/m 0 min 0 min 5 W/m 19,3 km/h (3 Bft) 100,00 %
19.06.2022 20:24 18,6 C 17,8 C 14,4 C 76 % 1013,1 hPa 0,0 l/m 0 min 0 min 5 W/m 12,9 km/h (3 Bft) 100,00 %
19.06.2022 20:26 18,6 C 17,8 C 14,4 C 76 % 1013,3 hPa 0,0 l/m 0 min 0 min 1 W/m 19,3 km/h (3 Bft) 100,00 %
19.06.2022 20:28 18,5 C 17,8 C 14,4 C 76 % 1013,7 hPa 0,0 l/m 0 min 0 min 0 W/m 29,0 km/h (5 Bft) 97,87 %
19.06.2022 20:30 18,4 C 17,2 C 14,4 C 77 % 1013,7 hPa 0,0 l/m 0 min 0 min 2 W/m 16,1 km/h (3 Bft) 100,00 %
19.06.2022 20:32 18,3 C 17,2 C 14,4 C 77 % 1013,5 hPa 0,0 l/m 0 min 0 min 5 W/m 19,3 km/h (3 Bft) 100,00 %
19.06.2022 20:34 18,3 C 17,2 C 14,4 C 77 % 1013,2 hPa 0,0 l/m 0 min 0 min 7 W/m 29,0 km/h (5 Bft) 100,00 %
19.06.2022 20:36 18,2 C 17,2 C 13,9 C 77 % 1012,6 hPa 0,0 l/m 0 min 0 min 10 W/m 16,1 km/h (3 Bft) 97,87 %
19.06.2022 20:38 18,1 C 17,2 C 13,9 C 77 % 1012,4 hPa 0,0 l/m 0 min 0 min 12 W/m 16,1 km/h (3 Bft) 100,00 %
19.06.2022 20:40 17,9 C 17,2 C 13,9 C 77 % 1012,0 hPa 0,0 l/m 0 min 0 min 14 W/m 19,3 km/h (3 Bft) 95,74 %
19.06.2022 20:42 17,9 C 17,2 C 13,9 C 78 % 1011,4 hPa 0,0 l/m 0 min 0 min 18 W/m 12,9 km/h (3 Bft) 100,00 %
19.06.2022 20:44 17,8 C 17,2 C 13,9 C 78 % 1011,1 hPa 0,0 l/m 0 min 0 min 21 W/m 19,3 km/h (3 Bft) 100,00 %
19.06.2022 20:46 17,8 C 17,2 C 13,9 C 78 % 1011,0 hPa 0,0 l/m 0 min 0 min 21 W/m 16,1 km/h (3 Bft) 100,00 %
19.06.2022 20:48 17,8 C 16,7 C 13,9 C 78 % 1011,1 hPa 0,0 l/m 0 min 0 min 23 W/m 16,1 km/h (3 Bft) 100,00 %
19.06.2022 20:50 17,7 C 17,2 C 13,9 C 78 % 1010,8 hPa 0,0 l/m 0 min 0 min 22 W/m 9,7 km/h (2 Bft) 100,00 %
19.06.2022 20:52 17,7 C 17,2 C 13,9 C 78 % 1011,1 hPa 0,0 l/m 0 min 2 min 23 W/m 16,1 km/h (3 Bft) 97,87 %
19.06.2022 20:54 17,7 C 17,2 C 13,9 C 79 % 1011,4 hPa 0,0 l/m 0 min 2 min 21 W/m 12,9 km/h (3 Bft) 100,00 %
19.06.2022 20:56 17,7 C 17,2 C 13,9 C 79 % 1011,8 hPa 0,0 l/m 0 min 0 min 17 W/m 12,9 km/h (3 Bft) 100,00 %
19.06.2022 20:58 17,7 C 17,2 C 13,9 C 79 % 1011,9 hPa 0,0 l/m 0 min 0 min 16 W/m 9,7 km/h (2 Bft) 100,00 %
19.06.2022 21:00 17,7 C 17,2 C 13,9 C 79 % 1012,2 hPa 0,0 l/m 0 min 0 min 14 W/m 16,1 km/h (3 Bft) 100,00 %
19.06.2022 21:02 17,7 C 17,2 C 13,9 C 79 % 1012,4 hPa 0,0 l/m 0 min 0 min 13 W/m 9,7 km/h (2 Bft) 100,00 %
19.06.2022 21:04 17,7 C 17,2 C 13,9 C 79 % 1012,8 hPa 0,0 l/m 0 min 0 min 11 W/m 22,5 km/h (4 Bft) 100,00 %
19.06.2022 21:06 17,7 C 17,2 C 13,9 C 79 % 1012,9 hPa 0,0 l/m 0 min 0 min 11 W/m 16,1 km/h (3 Bft) 100,00 %
19.06.2022 21:08 17,7 C 17,2 C 13,9 C 79 % 1012,6 hPa 0,0 l/m 0 min 0 min 11 W/m 12,9 km/h (3 Bft) 100,00 %
19.06.2022 21:10 17,7 C 17,2 C 13,9 C 78 % 1012,5 hPa 0,0 l/m 0 min 0 min 12 W/m 16,1 km/h (3 Bft) 100,00 %
19.06.2022 21:12 17,7 C 17,2 C 13,9 C 79 % 1012,0 hPa 0,0 l/m 0 min 0 min 14 W/m 6,4 km/h (2 Bft) 100,00 %
19.06.2022 21:14 17,7 C 17,2 C 13,9 C 79 % 1011,9 hPa 0,0 l/m 0 min 2 min 20 W/m 16,1 km/h (3 Bft) 100,00 %
19.06.2022 21:16 17,7 C 16,7 C 13,3 C 81 % 1012,0 hPa 0,0 l/m 0 min 2 min 25 W/m 16,1 km/h (3 Bft) 100,00 %
19.06.2022 21:18 17,6 C 16,7 C 12,8 C 82 % 1012,1 hPa 0,0 l/m 0 min 2 min 28 W/m 19,3 km/h (3 Bft) 95,65 %
19.06.2022 21:20 17,5 C 16,7 C 12,8 C 83 % 1012,2 hPa 0,0 l/m 2 min 2 min 32 W/m 16,1 km/h (3 Bft) 95,74 %
19.06.2022 21:22 17,3 C 16,7 C 12,8 C 83 % 1012,4 hPa 0,0 l/m 2 min 2 min 28 W/m 19,3 km/h (3 Bft) 100,00 %
19.06.2022 21:24 17,3 C 16,1 C 12,2 C 84 % 1012,4 hPa 0,0 l/m 0 min 2 min 24 W/m 9,7 km/h (2 Bft) 97,87 %
19.06.2022 21:26 17,2 C 16,1 C 12,2 C 85 % 1012,4 hPa 0,0 l/m 0 min 0 min 20 W/m 16,1 km/h (3 Bft) 95,74 %
19.06.2022 21:28 17,1 C 16,1 C 12,2 C 85 % 1012,4 hPa 0,0 l/m 0 min 0 min 16 W/m 9,7 km/h (2 Bft) 97,87 %
19.06.2022 21:30 17,0 C 16,1 C 12,2 C 85 % 1012,4 hPa 0,0 l/m 0 min 0 min 12 W/m 9,7 km/h (2 Bft) 95,65 %
19.06.2022 21:32 16,9 C 16,1 C 12,2 C 85 % 1012,5 hPa 0,0 l/m 0 min 0 min 10 W/m 16,1 km/h (3 Bft) 95,74 %
19.06.2022 21:34 16,8 C 16,1 C 12,8 C 86 % 1012,5 hPa 0,0 l/m 0 min 0 min 7 W/m 12,9 km/h (3 Bft) 95,74 %
19.06.2022 21:36 16,8 C 16,1 C 12,8 C 86 % 1012,4 hPa 0,0 l/m 0 min 0 min 5 W/m 12,9 km/h (3 Bft) 95,74 %
19.06.2022 21:38 16,7 C 16,1 C 12,8 C 86 % 1012,5 hPa 0,0 l/m 0 min 0 min 5 W/m 12,9 km/h (3 Bft) 95,74 %
19.06.2022 21:40 16,7 C 16,1 C 12,8 C 86 % 1012,5 hPa 0,0 l/m 0 min 0 min 5 W/m 12,9 km/h (3 Bft) 95,74 %
19.06.2022 21:42 16,6 C 16,1 C 12,8 C 86 % 1012,6 hPa 0,0 l/m 0 min 0 min 3 W/m 12,9 km/h (3 Bft) 97,78 %
19.06.2022 21:44 16,6 C 16,1 C 12,8 C 86 % 1012,6 hPa 0,0 l/m 0 min 0 min 0 W/m 12,9 km/h (3 Bft) 93,62 %
19.06.2022 21:46 16,6 C 16,1 C 12,8 C 86 % 1012,6 hPa 0,0 l/m 0 min 0 min 0 W/m 9,7 km/h (2 Bft) 95,74 %
19.06.2022 21:48 16,4 C 15,6 C 12,8 C 86 % 1012,6 hPa 0,0 l/m 0 min 0 min 0 W/m 16,1 km/h (3 Bft) 93,62 %
19.06.2022 21:50 16,4 C 15,6 C 12,8 C 86 % 1012,7 hPa 0,0 l/m 0 min 0 min 0 W/m 16,1 km/h (3 Bft) 95,74 %
19.06.2022 21:52 16,3 C 15,6 C 12,2 C 86 % 1012,9 hPa 0,0 l/m 0 min 0 min 0 W/m 12,9 km/h (3 Bft) 95,74 %
19.06.2022 21:54 16,3 C 15,6 C 12,8 C 86 % 1012,9 hPa 0,0 l/m 0 min 0 min 0 W/m 16,1 km/h (3 Bft) 95,65 %
19.06.2022 21:56 16,3 C 15,6 C 12,2 C 86 % 1012,9 hPa 0,0 l/m 0 min 0 min 0 W/m 9,7 km/h (2 Bft) 93,62 %
19.06.2022 21:58 16,3 C 15,6 C 12,8 C 86 % 1012,8 hPa 0,0 l/m 0 min 0 min 0 W/m 6,4 km/h (2 Bft) 93,62 %
19.06.2022 22:00 16,2 C 15,6 C 12,2 C 86 % 1012,8 hPa 0,0 l/m 0 min 0 min 0 W/m 16,1 km/h (3 Bft) 97,87 %
19.06.2022 22:02 16,2 C 15,6 C 12,8 C 85 % 1012,9 hPa 0,0 l/m 0 min 0 min 0 W/m 12,9 km/h (3 Bft) 97,87 %
19.06.2022 22:04 16,2 C 15,6 C 12,8 C 85 % 1013,1 hPa 0,0 l/m 0 min 0 min 0 W/m 6,4 km/h (2 Bft) 97,87 %
19.06.2022 22:06 16,2 C 15,6 C 12,8 C 85 % 1013,2 hPa 0,0 l/m 0 min 0 min 0 W/m 6,4 km/h (2 Bft) 97,83 %
19.06.2022 22:08 16,2 C 15,6 C 12,2 C 86 % 1013,3 hPa 0,0 l/m 0 min 0 min 0 W/m 9,7 km/h (2 Bft) 97,87 %
19.06.2022 22:10 16,2 C 15,6 C 12,8 C 85 % 1013,1 hPa 0,0 l/m 0 min 0 min 0 W/m 16,1 km/h (3 Bft) 97,87 %
19.06.2022 22:12 16,3 C 15,6 C 12,8 C 86 % 1012,9 hPa 0,0 l/m 0 min 2 min 0 W/m 6,4 km/h (2 Bft) 97,87 %
19.06.2022 22:14 16,2 C 15,6 C 12,2 C 86 % 1012,5 hPa 0,0 l/m 0 min 0 min 0 W/m 12,9 km/h (3 Bft) 97,87 %
19.06.2022 22:16 16,2 C 15,6 C 12,2 C 86 % 1012,0 hPa 0,0 l/m 0 min 2 min 0 W/m 16,1 km/h (3 Bft) 97,87 %
19.06.2022 22:18 16,2 C 15,0 C 11,1 C 86 % 1012,1 hPa 0,4 l/m 0 min 2 min 0 W/m 19,3 km/h (3 Bft) 97,83 %
19.06.2022 22:20 16,1 C 14,4 C 11,1 C 87 % 1012,4 hPa 0,2 l/m 0 min 2 min 0 W/m 16,1 km/h (3 Bft) 100,00 %
19.06.2022 22:22 16,1 C 14,4 C 11,1 C 87 % 1012,8 hPa 0,0 l/m 0 min 2 min 0 W/m 6,4 km/h (2 Bft) 97,87 %
19.06.2022 22:24 16,0 C 14,4 C 11,1 C 87 % 1012,6 hPa 0,0 l/m 0 min 2 min 0 W/m 9,7 km/h (2 Bft) 95,74 %
19.06.2022 22:26 15,9 C 14,4 C 10,6 C 88 % 1012,7 hPa 0,0 l/m 0 min 0 min 0 W/m 12,9 km/h (3 Bft) 97,87 %
19.06.2022 22:28 15,8 C 14,4 C 10,6 C 88 % 1012,7 hPa 0,0 l/m 0 min 0 min 0 W/m 12,9 km/h (3 Bft) 97,87 %
19.06.2022 22:30 15,8 C 14,4 C 11,1 C 89 % 1012,8 hPa 0,0 l/m 0 min 0 min 0 W/m 6,4 km/h (2 Bft) 97,83 %
19.06.2022 22:32 15,7 C 14,4 C 10,6 C 89 % 1012,7 hPa 0,2 l/m 0 min 0 min 0 W/m 12,9 km/h (3 Bft) 97,87 %
19.06.2022 22:34 15,7 C 14,4 C 10,6 C 89 % 1012,7 hPa 0,0 l/m 0 min 0 min 0 W/m 6,4 km/h (2 Bft) 97,87 %
19.06.2022 22:36 15,6 C 14,4 C 10,6 C 90 % 1012,7 hPa 0,0 l/m 0 min 0 min 0 W/m 6,4 km/h (2 Bft) 97,87 %
19.06.2022 22:38 15,6 C 14,4 C 10,6 C 90 % 1012,8 hPa 0,0 l/m 0 min 0 min 0 W/m 3,2 km/h (1 Bft) 95,74 %
19.06.2022 22:40 15,6 C 14,4 C 10,6 C 90 % 1012,8 hPa 0,0 l/m 0 min 0 min 0 W/m 6,4 km/h (2 Bft) 95,74 %
19.06.2022 22:42 15,5 C 14,4 C 10,6 C 90 % 1012,6 hPa 0,0 l/m 0 min 0 min 0 W/m 16,1 km/h (3 Bft) 93,48 %
19.06.2022 22:44 15,4 C 14,4 C 11,1 C 90 % 1012,6 hPa 0,0 l/m 0 min 0 min 0 W/m 6,4 km/h (2 Bft) 93,62 %
19.06.2022 22:46 15,4 C 14,4 C 11,1 C 90 % 1012,6 hPa 0,0 l/m 0 min 0 min 0 W/m 12,9 km/h (3 Bft) 97,87 %
19.06.2022 22:48 15,3 C 14,4 C 11,1 C 91 % 1012,7 hPa 0,0 l/m 0 min 0 min 0 W/m 6,4 km/h (2 Bft) 97,87 %
19.06.2022 22:50 15,3 C 14,4 C 11,1 C 91 % 1012,6 hPa 0,0 l/m 0 min 0 min 0 W/m 16,1 km/h (3 Bft) 97,87 %
19.06.2022 22:52 15,3 C 14,4 C 11,1 C 91 % 1012,6 hPa 0,0 l/m 0 min 0 min 0 W/m 25,7 km/h (4 Bft) 95,74 %
19.06.2022 22:54 15,2 C 14,4 C 11,1 C 91 % 1012,6 hPa 0,0 l/m 0 min 0 min 0 W/m 12,9 km/h (3 Bft) 97,83 %
19.06.2022 22:56 15,2 C 14,4 C 11,1 C 91 % 1012,6 hPa 0,0 l/m 0 min 0 min 0 W/m 12,9 km/h (3 Bft) 95,92 %
19.06.2022 22:58 15,2 C 14,4 C 11,1 C 91 % 1012,8 hPa 0,0 l/m 0 min 0 min 0 W/m 6,4 km/h (2 Bft) 95,74 %
19.06.2022 23:00 15,2 C 14,4 C 11,1 C 91 % 1012,7 hPa 0,0 l/m 0 min 0 min 0 W/m 16,1 km/h (3 Bft) 97,87 %
19.06.2022 23:02 15,1 C 14,4 C 11,1 C 91 % 1012,7 hPa 0,0 l/m 0 min 0 min 0 W/m 19,3 km/h (3 Bft) 97,83 %
19.06.2022 23:04 15,1 C 14,4 C 11,1 C 91 % 1012,9 hPa 0,0 l/m 0 min 0 min 0 W/m 6,4 km/h (2 Bft) 97,87 %
19.06.2022 23:06 15,1 C 14,4 C 11,1 C 91 % 1013,0 hPa 0,0 l/m 0 min 0 min 0 W/m 3,2 km/h (1 Bft) 95,74 %
19.06.2022 23:08 15,1 C 14,4 C 11,1 C 91 % 1013,0 hPa 0,0 l/m 0 min 0 min 0 W/m 3,2 km/h (1 Bft) 97,87 %
19.06.2022 23:10 15,2 C 14,4 C 11,1 C 91 % 1012,9 hPa 0,0 l/m 0 min 0 min 0 W/m 3,2 km/h (1 Bft) 97,87 %
19.06.2022 23:12 15,2 C 14,4 C 11,1 C 91 % 1012,9 hPa 0,0 l/m 0 min 0 min 0 W/m 6,4 km/h (2 Bft) 100,00 %
19.06.2022 23:14 15,2 C 14,4 C 11,1 C 91 % 1012,9 hPa 0,0 l/m 0 min 0 min 0 W/m 6,4 km/h (2 Bft) 95,65 %
19.06.2022 23:16 15,2 C 14,4 C 11,1 C 91 % 1013,0 hPa 0,0 l/m 0 min 0 min 0 W/m 12,9 km/h (3 Bft) 97,87 %
19.06.2022 23:18 15,2 C 14,4 C 11,1 C 91 % 1013,0 hPa 0,0 l/m 0 min 0 min 0 W/m 6,4 km/h (2 Bft) 95,74 %
19.06.2022 23:20 15,1 C 14,4 C 11,1 C 91 % 1013,0 hPa 0,0 l/m 0 min 0 min 0 W/m 6,4 km/h (2 Bft) 97,87 %
19.06.2022 23:22 15,1 C 14,4 C 11,1 C 91 % 1013,2 hPa 0,0 l/m 0 min 0 min 0 W/m 6,4 km/h (2 Bft) 97,87 %
19.06.2022 23:24 15,1 C 14,4 C 11,1 C 91 % 1013,3 hPa 0,0 l/m 0 min 0 min 0 W/m 9,7 km/h (2 Bft) 97,87 %
19.06.2022 23:26 15,2 C 14,4 C 11,7 C 91 % 1013,3 hPa 0,0 l/m 0 min 0 min 0 W/m 3,2 km/h (1 Bft) 97,83 %
19.06.2022 23:28 15,2 C 14,4 C 11,1 C 91 % 1013,3 hPa 0,0 l/m 0 min 0 min 0 W/m 6,4 km/h (2 Bft) 95,74 %
19.06.2022 23:30 15,2 C 14,4 C 11,1 C 91 % 1013,3 hPa 0,0 l/m 0 min 0 min 0 W/m 12,9 km/h (3 Bft) 97,87 %
19.06.2022 23:32 15,2 C 14,4 C 11,1 C 91 % 1013,2 hPa 0,0 l/m 0 min 0 min 0 W/m 6,4 km/h (2 Bft) 97,87 %
19.06.2022 23:34 15,1 C 14,4 C 11,1 C 91 % 1013,1 hPa 0,0 l/m 0 min 0 min 0 W/m 6,4 km/h (2 Bft) 95,74 %
19.06.2022 23:36 15,1 C 14,4 C 11,1 C 91 % 1013,2 hPa 0,0 l/m 0 min 0 min 0 W/m 6,4 km/h (2 Bft) 97,87 %
19.06.2022 23:38 15,1 C 14,4 C 11,7 C 90 % 1013,1 hPa 0,0 l/m 0 min 0 min 0 W/m 9,7 km/h (2 Bft) 97,83 %
19.06.2022 23:40 15,1 C 14,4 C 11,7 C 90 % 1013,2 hPa 0,0 l/m 0 min 0 min 0 W/m 16,1 km/h (3 Bft) 95,74 %
19.06.2022 23:42 15,1 C 14,4 C 11,1 C 90 % 1013,2 hPa 0,0 l/m 0 min 0 min 0 W/m 9,7 km/h (2 Bft) 97,87 %
19.06.2022 23:44 15,1 C 14,4 C 11,1 C 90 % 1013,2 hPa 0,0 l/m 0 min 0 min 0 W/m 3,2 km/h (1 Bft) 97,87 %
19.06.2022 23:46 15,1 C 14,4 C 11,1 C 90 % 1013,3 hPa 0,0 l/m 0 min 0 min 0 W/m 12,9 km/h (3 Bft) 97,87 %
19.06.2022 23:48 15,1 C 14,4 C 11,1 C 90 % 1013,3 hPa 0,0 l/m 0 min 0 min 0 W/m 6,4 km/h (2 Bft) 100,00 %
19.06.2022 23:50 15,1 C 14,4 C 11,1 C 90 % 1013,4 hPa 0,0 l/m 0 min 0 min 0 W/m 9,7 km/h (2 Bft) 100,00 %
19.06.2022 23:52 15,1 C 14,4 C 11,1 C 90 % 1013,4 hPa 0,0 l/m 0 min 0 min 0 W/m 6,4 km/h (2 Bft) 100,00 %
19.06.2022 23:54 15,0 C 14,4 C 11,1 C 90 % 1013,4 hPa 0,0 l/m 0 min 0 min 0 W/m 12,9 km/h (3 Bft) 97,87 %
19.06.2022 23:56 15,0 C 14,4 C 11,1 C 89 % 1013,4 hPa 0,0 l/m 0 min 0 min 0 W/m 9,7 km/h (2 Bft) 97,87 %
19.06.2022 23:58 15,0 C 14,4 C 11,1 C 89 % 1013,4 hPa 0,0 l/m 0 min 0 min 0 W/m 6,4 km/h (2 Bft) 97,87 %
_ Min-Zeit 23:54 22:20 22:26 16:20 04:05 - - - - 01:42 07:16
Minimum _ 15,0 C 14,4 C 10,6 C 62 % 1006,3 hPa - - - - 0,0 km/h (0 Bft) 89,13 %
_ Max-Zeit 00:00 16:18 13:42 22:48 20:28 22:18 07:54 20:52 12:50 16:40 00:26
Maximum _ 25,1 C 26,7 C 21,7 C 91 % 1013,7 hPa 0,4 l/m 5 min 2 min 1009 W/m 45,1 km/h
N-NW (6 Bft)
100,00 %
Durchschnitt _ 19,6 C 20,0 C 16,2 C 74 % 1010,4 hPa #0,8 l/m #8:53 h #28 min. 354 W/m 14,6 km/h (3 Bft) 97,46 %
© 2022 W. Hausmann